FW6434 Weather Reports


time (UTC)temp
C
wind
direction
speed
KPH
gust
KPH
rain 1hr
cm
rain 24hr
cm
rain mn
cm
humidity
%
barometer
mb
20260906152801 18 192 0.0 3.2 0.00 0.00 0.00 62 1025.3
20260906152720 18 93 1.6 3.2 0.00 0.00 0.00 62 1025.3
20260906152700 17 187 0.0 3.2 0.00 0.00 0.00 62 1025.2
20260906152637 17 200 1.6 3.2 0.00 0.00 0.00 62 1025.4
20260906152622 17 200 0.0 3.2 0.00 0.00 0.00 62 1025.3
20260906152329 17 188 0.0 3.2 0.00 0.00 0.00 63 1025.4
20260906152321 17 172 0.0 3.2 0.00 0.00 0.00 63 1025.3
20260906152025 17 186 0.0 3.2 0.00 0.00 0.00 64 1025.4
20260906152010 17 187 0.0 3.2 0.00 0.00 0.00 63 1025.3
20260906151954 17 189 0.0 3.2 0.00 0.00 0.00 63 1025.3
20260906151939 17 191 0.0 3.2 0.00 0.00 0.00 63 1025.3
20260906151930 17 173 0.0 3.2 0.00 0.00 0.00 64 1025.4
20260906151349 17 185 0.0 3.2 0.00 0.00 0.00 63 1025.2
20260906151221 17 184 0.0 1.6 0.00 0.00 0.00 63 1025.2
20260906151149 17 198 1.6 1.6 0.00 0.00 0.00 63 1025.1
20260906151048 17 109 0.0 1.6 0.00 0.00 0.00 63 1025.2
20260906151023 17 192 0.0 1.6 0.00 0.00 0.00 63 1025.3
20260906151007 17 200 1.6 1.6 0.00 0.00 0.00 63 1025.3
20260906150721 17 209 0.0 1.6 0.00 0.00 0.00 63 1025.2
20260906150649 17 209 0.0 3.2 0.00 0.00 0.00 63 1025.3
20260906150549 17 162 1.6 3.2 0.00 0.00 0.00 64 1025.2
20260906150448 17 199 0.0 3.2 0.00 0.00 0.00 63 1025.3
20260906150348 17 189 0.0 3.2 0.00 0.00 0.00 63 1025.3
20260906150248 17 191 0.0 3.2 0.00 0.00 0.00 63 1025.2
20260906150222 17 187 0.0 3.2 0.00 0.00 0.00 63 1025.2
20260906150148 17 134 0.0 3.2 0.00 0.00 0.00 63 1025.1
20260906150050 17 187 0.0 3.2 0.00 0.00 0.00 62 1025.3
20260906145949 18 185 0.0 3.2 0.00 0.00 0.00 61 1025.3
20260906145924 18 204 0.0 3.2 0.00 0.00 0.00 62 1025.2
20260906145908 18 188 0.0 3.2 0.00 0.00 0.00 62 1025.2
20260906145852 18 163 1.6 3.2 0.00 0.00 0.00 61 1025.2
20260906145843 18 191 0.0 3.2 0.00 0.00 0.00 61 1025.2
20260906145828 18 191 0.0 3.2 0.00 0.00 0.00 61 1025.1
20260906145248 18 190 0.0 3.2 0.00 0.00 0.00 62 1025.4
20260906145220 18 189 0.0 3.2 0.00 0.00 0.00 62 1025.4
20260906145149 18 177 1.6 3.2 0.00 0.00 0.00 62 1025.5
20260906145048 18 201 0.0 3.2 0.00 0.00 0.00 62 1025.1
20260906144950 18 155 1.6 3.2 0.00 0.00 0.00 62 1025.1
20260906144850 18 164 1.6 3.2 0.00 0.00 0.00 62 1025.2
20260906144751 17 194 0.0 4.8 0.00 0.00 0.00 62 1025.0
20260906144736 17 193 0.0 4.8 0.00 0.00 0.00 62 1025.0
20260906144727 17 199 1.6 4.8 0.00 0.00 0.00 63 1025.1
20260906144711 17 169 1.6 4.8 0.00 0.00 0.00 63 1025.1
20260906144348 17 212 1.6 4.8 0.00 0.00 0.00 63 1025.1
20260906144249 17 198 1.6 4.8 0.00 0.00 0.00 64 1025.3
20260906144221 17 201 1.6 4.8 0.00 0.00 0.00 64 1025.3
20260906144150 17 167 0.0 4.8 0.00 0.00 0.00 64 1025.1
20260906144048 17 180 1.6 4.8 0.00 0.00 0.00 63 1025.2
20260906143949 17 164 0.0 4.8 0.00 0.00 0.00 63 1025.2
20260906143748 17 204 1.6 3.2 0.00 0.00 0.00 64 1025.1
20260906143722 17 180 1.6 3.2 0.00 0.00 0.00 64 1025.1
20260906143648 17 134 1.6 3.2 0.00 0.00 0.00 64 1025.1
20260906143548 17 199 0.0 6.4 0.00 0.00 0.00 65 1025.1
20260906143437 17 187 1.6 6.4 0.00 0.00 0.00 65 1025.1
20260906143337 17 180 0.0 6.4 0.00 0.00 0.00 64 1025.0
20260906143220 17 145 1.6 6.4 0.00 0.00 0.00 64 1025.3
20260906143137 17 186 1.6 6.4 0.00 0.00 0.00 64 1025.0
20260906143038 17 180 0.0 6.4 0.00 0.00 0.00 64 1025.0
20260906143024 17 150 1.6 6.4 0.00 0.00 0.00 63 1025.1
20260906143015 17 189 0.0 6.4 0.00 0.00 0.00 63 1025.2
20260906142959 17 120 0.0 6.4 0.00 0.00 0.00 63 1025.0
20260906142943 17 194 0.0 6.4 0.00 0.00 0.00 64 1025.1
20260906142929 17 196 0.0 6.4 0.00 0.00 0.00 64 1025.1
20260906142919 17 205 0.0 6.4 0.00 0.00 0.00 63 1025.0
20260906142641 17 211 0.0 6.4 0.00 0.00 0.00 63 1025.0
20260906142624 17 189 0.0 6.4 0.00 0.00 0.00 64 1025.0
20260906142608 17 148 1.6 6.4 0.00 0.00 0.00 63 1025.1
20260906142036 17 190 0.0 6.4 0.00 0.00 0.00 63 1025.0
20260906141936 17 113 3.2 6.4 0.00 0.00 0.00 63 1024.9
20260906141912 17 192 0.0 6.4 0.00 0.00 0.00 63 1025.1
20260906141856 17 201 0.0 6.4 0.00 0.00 0.00 63 1024.9
20260906141842 17 193 0.0 6.4 0.00 0.00 0.00 63 1024.9
20260906141832 17 175 1.6 6.4 0.00 0.00 0.00 63 1025.1
20260906141557 17 119 0.0 4.8 0.00 0.00 0.00 63 1025.2
20260906141321 17 131 1.6 4.8 0.00 0.00 0.00 64 1025.1
20260906141259 17 164 0.0 4.8 0.00 0.00 0.00 63 1025.0
20260906141248 17 176 1.6 4.8 0.00 0.00 0.00 63 1025.0
20260906141232 17 185 0.0 4.8 0.00 0.00 0.00 64 1024.9
20260906140956 17 175 0.0 4.8 0.00 0.00 0.00 64 1025.2
20260906140940 17 182 1.6 4.8 0.00 0.00 0.00 64 1025.1
20260906140637 17 170 1.6 4.8 0.00 0.00 0.00 64 1025.2
20260906140538 17 57 3.2 4.8 0.00 0.00 0.00 63 1024.9
20260906140513 17 199 0.0 4.8 0.00 0.00 0.00 63 1025.2
20260906140456 17 138 3.2 4.8 0.00 0.00 0.00 63 1025.0
20260906140224 18 189 0.0 4.8 0.00 0.00 0.00 63 1025.0
20260906140216 18 196 0.0 4.8 0.00 0.00 0.00 61 1024.8
20260906140206 18 44 1.6 4.8 0.00 0.00 0.00 63 1025.0
20260906140149 18 165 1.6 4.8 0.00 0.00 0.00 62 1025.3
20260906140133 18 151 0.0 4.8 0.00 0.00 0.00 63 1024.9
20260906135908 18 185 1.6 4.8 0.00 0.00 0.00 63 1025.0
20260906135852 18 191 0.0 4.8 0.00 0.00 0.00 62 1024.9
20260906135837 18 100 1.6 4.8 0.00 0.00 0.00 63 1024.9
20260906135827 18 167 0.0 4.8 0.00 0.00 0.00 61 1025.1
20260906135811 18 43 3.2 4.8 0.00 0.00 0.00 61 1024.9
20260906135755 18 182 1.6 4.8 0.00 0.00 0.00 61 1025.1
20260906135740 18 214 1.6 4.8 0.00 0.00 0.00 60 1025.1
20260906135724 18 196 0.0 4.8 0.00 0.00 0.00 61 1024.8
20260906135457 18 206 1.6 6.4 0.00 0.00 0.00 60 1024.9
20260906135441 18 185 0.0 6.4 0.00 0.00 0.00 60 1025.0
20260906134724 18 213 1.6 6.4 0.00 0.00 0.00 61 1025.3
20260906134712 18 185 1.6 6.4 0.00 0.00 0.00 61 1024.8
20260906134656 18 191 0.0 6.4 0.00 0.00 0.00 61 1025.0
20260906134336 18 196 0.0 6.4 0.00 0.00 0.00 61 1025.0
20260906134237 18 194 3.2 6.4 0.00 0.00 0.00 60 1024.8
20260906134225 18 61 3.2 4.8 0.00 0.00 0.00 60 1024.8
20260906134214 18 192 1.6 4.8 0.00 0.00 0.00 60 1024.9
20260906134158 18 223 1.6 4.8 0.00 0.00 0.00 60 1025.1
20260906133836 19 61 3.2 4.8 0.00 0.00 0.00 59 1024.7
20260906133739 19 218 0.0 4.8 0.00 0.00 0.00 59 1025.0
20260906133724 19 194 0.0 4.8 0.00 0.00 0.00 59 1025.0
20260906133713 19 196 0.0 4.8 0.00 0.00 0.00 58 1024.8
20260906133657 19 204 0.0 4.8 0.00 0.00 0.00 59 1025.2
20260906133337 20 188 1.6 4.8 0.00 0.00 0.00 58 1025.0
20260906133221 20 190 1.6 4.8 0.00 0.00 0.00 58 1024.8
20260906133136 20 201 0.0 4.8 0.00 0.00 0.00 58 1024.7
20260906133037 20 183 3.2 4.8 0.00 0.00 0.00 58 1024.9
20260906132937 20 269 1.6 4.8 0.00 0.00 0.00 59 1024.9
20260906132915 20 236 1.6 6.4 0.00 0.00 0.00 56 1024.7
20260906132906 20 170 0.0 4.8 0.00 0.00 0.00 58 1025.0
20260906132850 20 225 0.0 6.4 0.00 0.00 0.00 59 1024.9
20260906132836 20 203 0.0 6.4 0.00 0.00 0.00 59 1024.9
20260906132825 20 204 0.0 6.4 0.00 0.00 0.00 59 1024.7
20260906132600 20 156 1.6 6.4 0.00 0.00 0.00 59 1024.8
20260906132543 20 205 0.0 6.4 0.00 0.00 0.00 60 1024.7
20260906132527 20 179 0.0 6.4 0.00 0.00 0.00 60 1024.9
20260906132511 19 241 0.0 6.4 0.00 0.00 0.00 60 1024.9
20260906132458 19 34 1.6 6.4 0.00 0.00 0.00 60 1024.9
20260906132448 19 200 0.0 6.4 0.00 0.00 0.00 61 1024.9
20260906131949 20 168 1.6 6.4 0.00 0.00 0.00 60 1025.0
20260906131932 20 189 1.6 6.4 0.00 0.00 0.00 59 1024.8
20260906131918 20 203 0.0 6.4 0.00 0.00 0.00 58 1024.8
20260906131907 20 199 0.0 6.4 0.00 0.00 0.00 58 1024.6
20260906131852 20 99 1.6 6.4 0.00 0.00 0.00 57 1024.7
20260906131835 20 209 1.6 6.4 0.00 0.00 0.00 57 1024.8
20260906131545 20 178 1.6 6.4 0.00 0.00 0.00 56 1024.4
20260906131534 20 153 1.6 6.4 0.00 0.00 0.00 56 1024.7
20260906131518 20 203 0.0 6.4 0.00 0.00 0.00 56 1024.5
20260906131501 20 217 0.0 6.4 0.00 0.00 0.00 56 1024.7
20260906131445 20 198 0.0 6.4 0.00 0.00 0.00 56 1024.7
20260906131430 20 236 1.6 6.4 0.00 0.00 0.00 56 1024.7
20260906130940 20 194 0.0 6.4 0.00 0.00 0.00 58 1024.5
20260906130223 19 198 0.0 6.4 0.00 0.00 0.00 59 1024.7
20260906130213 19 199 0.0 6.4 0.00 0.00 0.00 59 1024.5
20260906130157 19 188 1.6 6.4 0.00 0.00 0.00 59 1025.0
20260906125836 18 205 1.6 6.4 0.00 0.00 0.00 60 1024.5
20260906125736 18 189 0.0 6.4 0.00 0.00 0.00 61 1024.9
20260906125721 18 178 0.0 6.4 0.00 0.00 0.00 61 1024.9
20260906125636 18 203 3.2 6.4 0.00 0.00 0.00 59 1025.0
20260906125536 18 210 0.0 6.4 0.00 0.00 0.00 59 1024.7
20260906125436 18 212 0.0 6.4 0.00 0.00 0.00 59 1024.9
20260906125419 18 91 1.6 6.4 0.00 0.00 0.00 59 1024.8
20260906125351 18 216 0.0 6.4 0.00 0.00 0.00 59 1024.7
20260906125036 19 169 1.6 6.4 0.00 0.00 0.00 60 1024.8
20260906124935 19 211 1.6 6.4 0.00 0.00 0.00 60 1024.9
20260906124836 19 177 1.6 6.4 0.00 0.00 0.00 60 1024.7
20260906124737 19 38 4.8 6.4 0.00 0.00 0.00 61 1024.9
20260906124724 19 217 0.0 6.4 0.00 0.00 0.00 61 1024.9
20260906124713 18 222 1.6 6.4 0.00 0.00 0.00 61 1024.6
20260906124657 18 42 4.8 6.4 0.00 0.00 0.00 61 1024.5
20260906124337 18 180 3.2 11.3 0.00 0.00 0.00 62 1024.6
20260906124236 18 155 0.0 11.3 0.00 0.00 0.00 63 1024.6
20260906124220 18 202 0.0 11.3 0.00 0.00 0.00 63 1024.6
20260906124137 18 164 1.6 11.3 0.00 0.00 0.00 63 1024.7
20260906124037 18 179 1.6 11.3 0.00 0.00 0.00 63 1024.8
20260906123939 18 160 0.0 11.3 0.00 0.00 0.00 63 1024.8
20260906123922 18 156 0.0 11.3 0.00 0.00 0.00 63 1024.8
20260906123906 18 194 0.0 11.3 0.00 0.00 0.00 63 1024.6
20260906123852 18 196 0.0 11.3 0.00 0.00 0.00 63 1024.6
20260906123614 18 213 3.2 11.3 0.00 0.00 0.00 63 1024.8
20260906123557 18 47 3.2 11.3 0.00 0.00 0.00 63 1024.7
20260906123540 18 102 3.2 6.4 0.00 0.00 0.00 63 1024.8
20260906123512 18 196 0.0 4.8 0.00 0.00 0.00 63 1024.7
20260906122937 18 188 0.0 4.8 0.00 0.00 0.00 63 1024.9
20260906122837 18 208 1.6 4.8 0.00 0.00 0.00 62 1024.7
20260906122736 18 134 3.2 4.8 0.00 0.00 0.00 62 1024.7
20260906122722 18 201 0.0 3.2 0.00 0.00 0.00 62 1024.7
20260906122638 18 206 1.6 3.2 0.00 0.00 0.00 62 1024.5
20260906122536 18 100 1.6 3.2 0.00 0.00 0.00 61 1024.6
20260906122437 18 180 0.0 3.2 0.00 0.00 0.00 61 1024.7
20260906122421 19 225 0.0 3.2 0.00 0.00 0.00 60 1024.7
20260906122405 19 193 0.0 3.2 0.00 0.00 0.00 60 1024.5
20260906122353 19 154 3.2 3.2 0.00 0.00 0.00 60 1024.5
20260906122037 19 198 0.0 3.2 0.00 0.00 0.00 61 1024.7
20260906121937 18 168 3.2 3.2 0.00 0.00 0.00 61 1024.6
20260906121839 18 210 1.6 4.8 0.00 0.00 0.00 62 1024.7
20260906121736 18 210 1.6 4.8 0.00 0.00 0.00 63 1024.5
20260906121720 18 210 1.6 4.8 0.00 0.00 0.00 63 1024.5
20260906121637 18 194 1.6 4.8 0.00 0.00 0.00 64 1024.7
20260906121536 18 201 0.0 6.4 0.00 0.00 0.00 64 1024.7
20260906121436 18 201 0.0 6.4 0.00 0.00 0.00 65 1024.7
20260906121337 17 205 1.6 6.4 0.00 0.00 0.00 65 1024.8
20260906121220 17 187 0.0 6.4 0.00 0.00 0.00 65 1024.7
20260906121136 17 225 0.0 6.4 0.00 0.00 0.00 65 1024.9
20260906121035 17 159 3.2 6.4 0.00 0.00 0.00 65 1024.7
20260906120936 18 128 1.6 6.4 0.00 0.00 0.00 65 1024.7
20260906120841 18 44 3.2 6.4 0.00 0.00 0.00 64 1024.7
20260906120824 18 182 1.6 6.4 0.00 0.00 0.00 64 1024.7
20260906120808 18 40 1.6 6.4 0.00 0.00 0.00 64 1024.7
20260906120757 19 66 3.2 6.4 0.00 0.00 0.00 63 1024.6
20260906120520 18 202 0.0 4.8 0.00 0.00 0.00 62 1024.3
20260906120510 19 208 3.2 4.8 0.00 0.00 0.00 62 1024.5
20260906120454 19 336 1.6 4.8 0.00 0.00 0.00 62 1024.8
20260906120437 18 201 0.0 4.8 0.00 0.00 0.00 61 1024.3
20260906120136 18 200 0.0 4.8 0.00 0.00 0.00 62 1024.6
20260906120037 18 18 1.6 4.8 0.00 0.00 0.00 62 1024.7
20260906115937 18 231 1.6 4.8 0.00 0.00 0.00 63 1024.3
20260906115838 18 196 0.0 4.8 0.00 0.00 0.00 64 1024.7
20260906115737 18 193 1.6 4.8 0.00 0.00 0.00 64 1024.6
20260906115720 18 193 1.6 4.8 0.00 0.00 0.00 65 1024.6
20260906115638 18 123 1.6 4.8 0.00 0.00 0.00 65 1024.5
20260906115614 17 183 1.6 4.8 0.00 0.00 0.00 66 1024.5
20260906115557 17 76 1.6 6.4 0.00 0.00 0.00 66 1024.7
20260906115235 17 203 0.0 6.4 0.00 0.00 0.00 66 1024.6
20260906115221 17 203 0.0 6.4 0.00 0.00 0.00 65 1024.6
20260906115136 17 198 0.0 6.4 0.00 0.00 0.00 65 1024.6
20260906115038 17 156 1.6 6.4 0.00 0.00 0.00 65 1024.6
20260906115014 17 183 0.0 6.4 0.00 0.00 0.00 65 1024.7
20260906114958 17 152 3.2 6.4 0.00 0.00 0.00 65 1024.7
20260906114723 18 162 1.6 6.4 0.00 0.00 0.00 64 1024.7
20260906114713 18 158 0.0 6.4 0.00 0.00 0.00 64 1024.4
20260906114656 18 89 1.6 4.8 0.00 0.00 0.00 63 1024.5
20260906114641 18 174 1.6 4.8 0.00 0.00 0.00 63 1024.7
20260906114352 18 131 1.6 6.4 0.00 0.00 0.00 63 1024.5
20260906114036 19 95 1.6 6.4 0.00 0.00 0.00 63 1024.6
20260906114020 18 167 1.6 6.4 0.00 0.00 0.00 63 1024.5
20260906114011 19 33 1.6 6.4 0.00 0.00 0.00 62 1024.4
20260906113955 19 44 1.6 6.4 0.00 0.00 0.00 62 1024.5
20260906113939 18 186 1.6 6.4 0.00 0.00 0.00 63 1024.5
20260906113636 18 198 0.0 6.4 0.00 0.00 0.00 64 1024.6
20260906113537 18 62 3.2 6.4 0.00 0.00 0.00 63 1024.6
20260906113436 18 140 0.0 6.4 0.00 0.00 0.00 64 1024.7
20260906113337 18 193 0.0 6.4 0.00 0.00 0.00 64 1024.5
20260906113222 18 203 1.6 3.2 0.00 0.00 0.00 66 1024.5
20260906113212 18 46 3.2 3.2 0.00 0.00 0.00 66 1024.4
20260906113156 17 74 1.6 4.8 0.00 0.00 0.00 67 1024.4
20260906112837 17 198 0.0 4.8 0.00 0.00 0.00 67 1024.7
20260906112737 17 156 1.6 4.8 0.00 0.00 0.00 67 1024.6
20260906112721 17 106 1.6 4.8 0.00 0.00 0.00 67 1024.6
20260906112647 17 127 0.0 4.8 0.00 0.00 0.00 67 1024.8
20260906112632 17 162 0.0 4.8 0.00 0.00 0.00 67 1024.6
20260906112615 17 140 1.6 4.8 0.00 0.00 0.00 68 1024.7
20260906112558 17 225 1.6 4.8 0.00 0.00 0.00 67 1024.6
20260906112542 17 177 1.6 4.8 0.00 0.00 0.00 67 1024.8
20260906112532 17 95 1.6 4.8 0.00 0.00 0.00 67 1024.8
20260906112039 18 176 1.6 6.4 0.00 0.00 0.00 66 1024.6
20260906112023 17 55 1.6 6.4 0.00 0.00 0.00 66 1024.6
20260906111756 17 50 1.6 6.4 0.00 0.00 0.00 66 1024.6
20260906111742 17 201 1.6 6.4 0.00 0.00 0.00 66 1024.6
20260906111731 17 192 0.0 6.4 0.00 0.00 0.00 66 1024.6
20260906111715 17 166 1.6 6.4 0.00 0.00 0.00 66 1024.6
20260906111659 17 192 0.0 6.4 0.00 0.00 0.00 65 1024.6
20260906111644 17 178 1.6 6.4 0.00 0.00 0.00 65 1024.5
20260906111615 18 187 1.6 6.4 0.00 0.00 0.00 65 1024.7
20260906111343 18 213 1.6 4.8 0.00 0.00 0.00 65 1024.5
20260906110847 18 106 1.6 6.4 0.00 0.00 0.00 64 1024.5
20260906110833 18 95 3.2 6.4 0.00 0.00 0.00 64 1024.5
20260906110823 18 220 0.0 6.4 0.00 0.00 0.00 64 1024.6
20260906110559 18 167 1.6 6.4 0.00 0.00 0.00 64 1024.4
20260906110543 18 65 3.2 6.4 0.00 0.00 0.00 64 1024.5
20260906110528 18 212 1.6 9.7 0.00 0.00 0.00 64 1024.7
20260906110512 18 51 3.2 9.7 0.00 0.00 0.00 64 1024.7
20260906110500 18 48 1.6 9.7 0.00 0.00 0.00 64 1024.7
20260906110450 18 222 0.0 9.7 0.00 0.00 0.00 63 1024.6
20260906110434 18 196 3.2 9.7 0.00 0.00 0.00 64 1024.5
20260906105938 18 208 0.0 9.7 0.00 0.00 0.00 66 1024.8
20260906105651 18 203 1.6 9.7 0.00 0.00 0.00 66 1024.6
20260906105635 18 337 1.6 9.7 0.00 0.00 0.00 66 1024.6
20260906105618 18 46 4.8 9.7 0.00 0.00 0.00 66 1024.5
20260906105336 18 263 1.6 6.4 0.00 0.00 0.00 67 1024.6
20260906105320 18 191 0.0 6.4 0.00 0.00 0.00 68 1024.8
20260906105306 18 186 0.0 6.4 0.00 0.00 0.00 66 1024.7
20260906104726 18 196 0.0 6.4 0.00 0.00 0.00 65 1024.5
20260906104625 18 105 0.0 6.4 0.00 0.00 0.00 64 1024.6
20260906104526 19 241 1.6 6.4 0.00 0.00 0.00 64 1024.7
20260906104424 19 199 0.0 6.4 0.00 0.00 0.00 64 1024.4
20260906104359 19 197 0.0 6.4 0.00 0.00 0.00 65 1024.6
20260906104337 18 59 1.6 6.4 0.00 0.00 0.00 65 1024.6
20260906104322 18 196 0.0 6.4 0.00 0.00 0.00 66 1024.8
20260906104306 18 196 0.0 6.4 0.00 0.00 0.00 65 1024.5
20260906103724 18 196 0.0 4.8 0.00 0.00 0.00 65 1024.6
20260906103624 19 176 0.0 4.8 0.00 0.00 0.00 64 1024.4
20260906103524 19 186 1.6 4.8 0.00 0.00 0.00 64 1024.9
20260906103424 19 201 1.6 4.8 0.00 0.00 0.00 64 1024.6
20260906103408 20 194 1.6 6.4 0.00 0.00 0.00 64 1024.4
20260906103345 20 94 1.6 6.4 0.00 0.00 0.00 62 1024.4
20260906103024 19 210 0.0 6.4 0.00 0.00 0.00 64 1024.3
20260906102924 18 212 1.6 6.4 0.00 0.00 0.00 63 1024.5
20260906102858 18 196 1.6 9.7 0.00 0.00 0.00 64 1024.3
20260906102835 18 198 1.6 9.7 0.00 0.00 0.00 64 1024.4
20260906102818 18 190 1.6 9.7 0.00 0.00 0.00 66 1024.5
20260906102804 18 201 0.0 9.7 0.00 0.00 0.00 66 1024.5
20260906102224 18 95 3.2 9.7 0.00 0.00 0.00 66 1024.7
20260906102200 18 104 3.2 9.7 0.00 0.00 0.00 65 1024.6
20260906102145 18 117 3.2 9.7 0.00 0.00 0.00 65 1024.4
20260906101859 19 248 3.2 6.4 0.00 0.00 0.00 64 1024.4
20260906101835 20 203 0.0 6.4 0.00 0.00 0.00 64 1024.3
20260906101819 20 201 0.0 6.4 0.00 0.00 0.00 64 1024.5
20260906101803 20 228 1.6 6.4 0.00 0.00 0.00 64 1024.4
20260906101527 19 192 3.2 6.4 0.00 0.00 0.00 64 1024.5
20260906101505 19 214 0.0 6.4 0.00 0.00 0.00 65 1024.6
20260906100925 19 311 1.6 6.4 0.00 0.00 0.00 65 1024.3
20260906100824 19 190 1.6 6.4 0.00 0.00 0.00 65 1024.4
20260906100724 19 263 4.8 6.4 0.00 0.00 0.00 64 1024.3
20260906100625 19 301 0.0 6.4 0.00 0.00 0.00 65 1024.5
20260906100524 19 200 1.6 6.4 0.00 0.00 0.00 65 1024.6
20260906100425 19 123 0.0 6.4 0.00 0.00 0.00 67 1024.4
20260906100325 19 196 1.6 6.4 0.00 0.00 0.00 65 1024.4
20260906100224 19 202 0.0 6.4 0.00 0.00 0.00 66 1024.4
20260906100151 19 93 3.2 6.4 0.00 0.00 0.00 66 1024.4
20260906100135 19 49 3.2 6.4 0.00 0.00 0.00 67 1024.4
20260906100119 19 196 0.0 6.4 0.00 0.00 0.00 68 1024.5
20260906100104 19 148 1.6 6.4 0.00 0.00 0.00 67 1024.5
20260906100040 18 200 0.0 6.4 0.00 0.00 0.00 67 1024.4
20260906100025 18 166 1.6 6.4 0.00 0.00 0.00 67 1024.6
20260906095749 18 202 3.2 6.4 0.00 0.00 0.00 68 1024.8
20260906095512 18 156 0.0 4.8 0.00 0.00 0.00 67 1024.2
20260906095500 18 194 0.0 4.8 0.00 0.00 0.00 67 1024.2
20260906094924 19 55 1.6 6.4 0.00 0.00 0.00 64 1024.2
20260906094826 20 185 0.0 6.4 0.00 0.00 0.00 65 1024.5
20260906094731 20 205 1.6 4.8 0.00 0.00 0.00 64 1024.3
20260906094724 20 189 1.6 6.4 0.00 0.00 0.00 64 1024.4
20260906094710 20 160 3.2 6.4 0.00 0.00 0.00 64 1024.4
20260906094658 20 201 0.0 9.7 0.00 0.00 0.00 64 1024.1
20260906094640 20 175 1.6 9.7 0.00 0.00 0.00 65 1024.3
20260906094624 19 201 0.0 9.7 0.00 0.00 0.00 65 1024.3
20260906094358 20 204 0.0 9.7 0.00 0.00 0.00 65 1024.5
20260906094342 20 172 3.2 11.3 0.00 0.00 0.00 65 1024.5
20260906094330 20 38 3.2 11.3 0.00 0.00 0.00 64 1024.5
20260906094319 20 184 0.0 11.3 0.00 0.00 0.00 65 1024.3
20260906094259 20 227 1.6 11.3 0.00 0.00 0.00 65 1024.1
20260906094023 19 129 3.2 11.3 0.00 0.00 0.00 66 1024.3
20260906093748 20 164 1.6 11.3 0.00 0.00 0.00 65 1024.3
20260906093737 20 184 0.0 11.3 0.00 0.00 0.00 64 1024.4
20260906093720 20 32 3.2 11.3 0.00 0.00 0.00 64 1024.2
20260906093704 20 201 1.6 11.3 0.00 0.00 0.00 64 1024.4
20260906093427 20 205 1.6 4.8 0.00 0.00 0.00 64 1024.3
20260906093200 20 229 0.0 4.8 0.00 0.00 0.00 64 1024.3
20260906093143 20 199 0.0 4.8 0.00 0.00 0.00 65 1024.1
20260906092825 20 191 0.0 4.8 0.00 0.00 0.00 65 1024.3
20260906092723 19 200 0.0 4.8 0.00 0.00 0.00 66 1024.2
20260906092708 19 200 0.0 4.8 0.00 0.00 0.00 66 1024.2
20260906092624 19 149 0.0 6.4 0.00 0.00 0.00 66 1024.3
20260906092523 18 179 0.0 6.4 0.00 0.00 0.00 67 1024.4
20260906092423 18 220 1.6 6.4 0.00 0.00 0.00 67 1024.3
20260906092324 18 38 0.0 6.4 0.00 0.00 0.00 67 1024.2
20260906092224 18 191 0.0 6.4 0.00 0.00 0.00 67 1024.5
20260906092207 18 161 1.6 6.4 0.00 0.00 0.00 68 1024.5
20260906092124 18 182 1.6 6.4 0.00 0.00 0.00 68 1024.4
20260906092023 18 63 0.0 6.4 0.00 0.00 0.00 69 1024.4
20260906091923 18 214 1.6 6.4 0.00 0.00 0.00 69 1024.3
20260906091824 18 6 3.2 6.4 0.00 0.00 0.00 69 1024.5
20260906091723 18 84 0.0 6.4 0.00 0.00 0.00 69 1024.3
20260906091707 18 225 0.0 6.4 0.00 0.00 0.00 69 1024.3
20260906091623 18 219 3.2 4.8 0.00 0.00 0.00 69 1024.2
20260906091523 18 196 0.0 4.8 0.00 0.00 0.00 69 1024.3
20260906091423 18 202 0.0 4.8 0.00 0.00 0.00 69 1024.3
20260906091407 18 228 1.6 4.8 0.00 0.00 0.00 69 1024.4
20260906091351 18 191 1.6 4.8 0.00 0.00 0.00 69 1024.4
20260906091338 18 187 1.6 4.8 0.00 0.00 0.00 69 1024.4
20260906091023 18 242 0.0 4.8 0.00 0.00 0.00 70 1024.2
20260906090923 18 172 1.6 4.8 0.00 0.00 0.00 70 1024.3
20260906090824 18 60 3.2 4.8 0.00 0.00 0.00 70 1024.3
20260906090725 18 186 1.6 4.8 0.00 0.00 0.00 70 1024.3
20260906090708 18 350 1.6 4.8 0.00 0.00 0.00 70 1024.3
20260906090624 18 194 1.6 4.8 0.00 0.00 0.00 70 1024.6
20260906090524 18 180 1.6 4.8 0.00 0.00 0.00 69 1024.2
20260906090423 18 185 0.0 4.8 0.00 0.00 0.00 70 1024.4
20260906090323 18 201 0.0 6.4 0.00 0.00 0.00 70 1024.1
20260906090306 18 228 0.0 6.4 0.00 0.00 0.00 70 1024.6
20260906090253 18 199 0.0 6.4 0.00 0.00 0.00 71 1024.6
20260906090243 18 201 0.0 6.4 0.00 0.00 0.00 71 1024.5
20260906085923 17 35 1.6 6.4 0.00 0.00 0.00 71 1024.5
20260906085708 17 204 0.0 6.4 0.00 0.00 0.00 72 1024.3
20260906085623 17 191 1.6 6.4 0.00 0.00 0.00 72 1024.2
20260906085523 17 351 3.2 6.4 0.00 0.00 0.00 72 1024.2
20260906085455 17 74 3.2 6.4 0.00 0.00 0.00 72 1024.5
20260906085438 17 191 0.0 3.2 0.00 0.00 0.00 72 1024.4
20260906085211 17 185 1.6 3.2 0.00 0.00 0.00 72 1024.4
20260906085112 17 199 0.0 1.6 0.00 0.00 0.00 73 1024.3
20260906085011 16 239 0.0 1.6 0.00 0.00 0.00 74 1024.2
20260906084911 16 202 0.0 1.6 0.00 0.00 0.00 74 1024.2
20260906084812 16 191 0.0 1.6 0.00 0.00 0.00 75 1024.2
20260906084710 16 191 0.0 0.0 0.00 0.00 0.00 76 1024.3
20260906083853 16 183 0.0 4.8 0.00 0.00 0.00 76 1024.5
20260906083753 16 200 0.0 4.8 0.00 0.00 0.00 76 1024.3
20260906083713 16 210 3.2 6.4 0.00 0.00 0.00 76 1024.3
20260906083654 16 127 3.2 6.4 0.00 0.00 0.00 76 1024.4
20260906083555 16 82 1.6 6.4 0.00 0.00 0.00 76 1024.1
20260906083531 16 112 1.6 6.4 0.00 0.00 0.00 76 1024.3
20260906083515 16 194 0.0 6.4 0.00 0.00 0.00 76 1024.3
20260906083214 16 198 0.0 6.4 0.00 0.00 0.00 76 1024.2
20260906083153 16 213 1.6 6.4 0.00 0.00 0.00 75 1024.2
20260906083054 16 74 3.2 6.4 0.00 0.00 0.00 75 1024.1
20260906082954 16 192 0.0 6.4 0.00 0.00 0.00 75 1024.2
20260906082854 16 188 0.0 6.4 0.00 0.00 0.00 75 1024.1
20260906082754 16 51 3.2 6.4 0.00 0.00 0.00 75 1024.1
20260906082713 16 24 3.2 6.4 0.00 0.00 0.00 75 1024.2
20260906082654 16 120 0.0 4.8 0.00 0.00 0.00 75 1024.3
20260906082553 16 176 1.6 4.8 0.00 0.00 0.00 75 1024.3
20260906082451 16 191 0.0 4.8 0.00 0.00 0.00 75 1024.3
20260906082352 16 165 0.0 4.8 0.00 0.00 0.00 74 1023.9
20260906082252 16 194 0.0 4.8 0.00 0.00 0.00 75 1024.2
20260906082210 16 188 0.0 4.8 0.00 0.00 0.00 75 1024.2
20260906082150 16 196 0.0 4.8 0.00 0.00 0.00 75 1024.4
20260906082052 16 190 0.0 4.8 0.00 0.00 0.00 75 1024.3
20260906081950 16 203 1.6 4.8 0.00 0.00 0.00 75 1024.0
20260906081838 16 189 0.0 4.8 0.00 0.00 0.00 75 1023.9
20260906081739 16 51 0.0 11.3 0.00 0.00 0.00 75 1024.3
20260906081710 16 204 1.6 11.3 0.00 0.00 0.00 75 1024.3
20260906081637 16 204 0.0 11.3 0.00 0.00 0.00 75 1024.2
20260906081538 16 173 0.0 11.3 0.00 0.00 0.00 74 1024.0
20260906081510 16 181 0.0 11.3 0.00 0.00 0.00 75 1024.0
20260906081502 16 216 0.0 11.3 0.00 0.00 0.00 75 1023.9
20260906081445 16 192 0.0 11.3 0.00 0.00 0.00 75 1023.9
20260906081429 16 191 0.0 11.3 0.00 0.00 0.00 75 1024.0
20260906081139 16 190 0.0 11.3 0.00 0.00 0.00 74 1023.8
20260906081057 17 205 0.0 9.7 0.00 0.00 0.00 70 1023.8
20260906081048 16 220 3.2 11.3 0.00 0.00 0.00 74 1023.8
20260906081029 16 191 0.0 11.3 0.00 0.00 0.00 73 1024.0
20260906081013 17 186 3.2 11.3 0.00 0.00 0.00 72 1023.8
20260906080734 17 67 3.2 9.7 0.00 0.00 0.00 72 1023.8
20260906080723 17 193 0.0 9.7 0.00 0.00 0.00 72 1023.9
20260906080705 17 182 1.6 9.7 0.00 0.00 0.00 71 1023.8
20260906080647 17 144 0.0 9.7 0.00 0.00 0.00 71 1023.9
20260906080629 17 133 3.2 9.7 0.00 0.00 0.00 70 1024.1
20260906080611 17 194 0.0 9.7 0.00 0.00 0.00 70 1023.8
20260906080119 17 213 4.8 6.4 0.00 0.00 0.00 70 1023.9
20260906080100 17 201 0.0 6.4 0.00 0.00 0.00 71 1023.9
20260906080044 16 166 0.0 6.4 0.00 0.00 0.00 72 1023.6
20260906075806 16 180 1.6 6.4 0.00 0.00 0.00 73 1023.8
20260906075755 16 67 1.6 6.4 0.00 0.00 0.00 73 1023.6
20260906075515 17 202 0.0 4.8 0.00 0.00 0.00 72 1023.6
20260906075500 17 211 3.2 4.8 0.00 0.00 0.00 72 1023.7
20260906075443 17 92 0.0 4.8 0.00 0.00 0.00 72 1023.7
20260906075424 17 202 0.0 4.8 0.00 0.00 0.00 72 1023.6
20260906075113 17 205 3.2 3.2 0.00 0.00 0.00 72 1023.8
20260906075021 17 208 3.2 3.2 0.00 0.00 0.00 72 1023.7
20260906075003 17 209 1.6 3.2 0.00 0.00 0.00 72 1023.6
20260906074945 17 208 1.6 3.2 0.00 0.00 0.00 72 1023.6
20260906074919 17 192 0.0 3.2 0.00 0.00 0.00 72 1023.7
20260906074858 17 200 1.6 3.2 0.00 0.00 0.00 72 1023.7
20260906074311 17 24 1.6 11.3 0.00 0.00 0.00 72 1023.6
20260906074211 17 117 0.0 11.3 0.00 0.00 0.00 72 1023.7
20260906074101 17 196 0.0 11.3 0.00 0.00 0.00 72 1023.6
20260906073959 17 200 0.0 11.3 0.00 0.00 0.00 72 1023.6
20260906073859 17 193 0.0 11.3 0.00 0.00 0.00 73 1023.5
20260906073800 17 121 1.6 11.3 0.00 0.00 0.00 72 1023.7
20260906073709 17 133 1.6 11.3 0.00 0.00 0.00 72 1023.7
20260906073701 17 172 1.6 11.3 0.00 0.00 0.00 72 1023.6
20260906073600 17 178 3.2 11.3 0.00 0.00 0.00 72 1023.6
20260906073501 17 247 1.6 11.3 0.00 0.00 0.00 72 1023.4
20260906073441 17 101 4.8 11.3 0.00 0.00 0.00 72 1023.5
20260906073425 17 198 0.0 6.4 0.00 0.00 0.00 72 1023.5
20260906073408 17 188 1.6 6.4 0.00 0.00 0.00 71 1023.5
20260906073401 17 55 3.2 6.4 0.00 0.00 0.00 71 1023.5
20260906073121 17 186 1.6 6.4 0.00 0.00 0.00 72 1023.3
20260906072811 15 180 0.0 9.7 0.00 0.00 0.00 75 1023.4
20260906072807 16 190 0.0 6.4 0.00 0.00 0.00 76 1023.1
20260906072801 17 204 0.0 9.7 0.00 0.00 0.00 72 1023.6
20260906072743 17 243 1.6 9.7 0.00 0.00 0.00 72 1023.6
20260906072736 17 222 3.2 9.7 0.00 0.00 0.00 72 1023.6
20260906072719 16 172 1.6 9.7 0.00 0.00 0.00 72 1023.1
20260906072702 16 196 0.0 9.7 0.00 0.00 0.00 73 1023.2
20260906072646 16 170 1.6 9.7 0.00 0.00 0.00 74 1023.2
20260906072629 16 193 0.0 9.7 0.00 0.00 0.00 75 1023.4
20260906072403 15 180 0.0 9.7 0.00 0.00 0.00 75 1023.4
20260906072347 15 164 0.0 9.7 0.00 0.00 0.00 75 1023.3
20260906072106 15 130 0.0 9.7 0.00 0.00 0.00 75 1023.2
20260906072049 15 200 0.0 9.7 0.00 0.00 0.00 76 1023.3
20260906072029 15 49 3.2 4.8 0.00 0.00 0.00 76 1023.3
20260906072022 15 174 0.0 4.8 0.00 0.00 0.00 76 1023.4
20260906071951 15 165 0.0 6.4 0.00 0.00 0.00 75 1023.3
20260906071239 16 185 1.6 6.4 0.00 0.00 0.00 76 1023.2
20260906071222 16 178 0.0 6.4 0.00 0.00 0.00 75 1023.2
20260906070900 16 179 0.0 6.4 0.00 0.00 0.00 75 1023.2
20260906070801 16 190 0.0 6.4 0.00 0.00 0.00 75 1023.2
20260906070704 16 185 0.0 6.4 0.00 0.00 0.00 76 1023.2
20260906070657 16 134 1.6 6.4 0.00 0.00 0.00 76 1023.2
20260906070556 16 183 0.0 6.4 0.00 0.00 0.00 76 1023.0
20260906070522 15 110 1.6 6.4 0.00 0.00 0.00 78 1023.1
20260906070515 15 53 1.6 6.4 0.00 0.00 0.00 76 1023.0
20260906070457 15 217 1.6 6.4 0.00 0.00 0.00 77 1023.1
20260906070439 15 187 0.0 6.4 0.00 0.00 0.00 78 1023.1
20260906070155 15 183 0.0 6.4 0.00 0.00 0.00 78 1023.2
20260906070055 15 75 3.2 6.4 0.00 0.00 0.00 77 1023.0
20260906065957 15 182 0.0 9.7 0.00 0.00 0.00 77 1023.0
20260906065941 15 112 0.0 9.7 0.00 0.00 0.00 77 1023.4
20260906065926 15 125 3.2 9.7 0.00 0.00 0.00 77 1023.2
20260906065906 15 166 0.0 9.7 0.00 0.00 0.00 77 1023.2
20260906065557 15 188 0.0 11.3 0.00 0.00 0.00 77 1023.2
20260906065456 16 62 3.2 11.3 0.00 0.00 0.00 76 1023.2
20260906065356 16 174 1.6 11.3 0.00 0.00 0.00 76 1023.0
20260906065259 16 191 0.0 11.3 0.00 0.00 0.00 76 1023.0
20260906065242 16 184 1.6 11.3 0.00 0.00 0.00 76 1023.0
20260906065235 16 177 3.2 11.3 0.00 0.00 0.00 76 1023.0
20260906065218 16 196 0.0 11.3 0.00 0.00 0.00 75 1022.9
20260906064856 16 192 0.0 11.3 0.00 0.00 0.00 75 1023.1
20260906064759 16 187 0.0 11.3 0.00 0.00 0.00 76 1022.9
20260906064740 16 167 3.2 11.3 0.00 0.00 0.00 76 1022.9
20260906064733 16 202 1.6 4.8 0.00 0.00 0.00 76 1023.0
20260906064718 16 206 0.0 4.8 0.00 0.00 0.00 76 1023.1
20260906064357 16 170 3.2 4.8 0.00 0.00 0.00 75 1023.1
20260906064256 16 182 0.0 4.8 0.00 0.00 0.00 75 1022.9
20260906064203 16 177 0.0 4.8 0.00 0.00 0.00 75 1022.9
20260906064155 16 154 1.6 4.8 0.00 0.00 0.00 75 1023.1
20260906064056 16 199 0.0 4.8 0.00 0.00 0.00 75 1022.7
20260906063956 16 114 1.6 4.8 0.00 0.00 0.00 75 1022.7
20260906063856 16 185 1.6 4.8 0.00 0.00 0.00 75 1022.6
20260906063829 16 193 0.0 4.8 0.00 0.00 0.00 74 1022.6
20260906063812 16 196 0.0 4.8 0.00 0.00 0.00 74 1022.6
20260906063804 16 203 1.6 4.8 0.00 0.00 0.00 74 1022.7
20260906063445 16 201 1.6 3.2 0.00 0.00 0.00 74 1022.5
20260906063346 16 180 0.0 3.2 0.00 0.00 0.00 74 1023.0
20260906063329 16 127 0.0 3.2 0.00 0.00 0.00 74 1022.7
20260906063314 16 188 0.0 4.8 0.00 0.00 0.00 74 1022.7
20260906063306 16 124 1.6 4.8 0.00 0.00 0.00 74 1022.7
20260906062944 16 194 0.0 4.8 0.00 0.00 0.00 75 1023.0
20260906062844 16 194 0.0 4.8 0.00 0.00 0.00 76 1022.7
20260906062744 16 198 1.6 4.8 0.00 0.00 0.00 76 1022.7
20260906062705 16 186 0.0 4.8 0.00 0.00 0.00 76 1022.7
20260906062643 16 145 0.0 4.8 0.00 0.00 0.00 76 1022.4
20260906062543 16 204 1.6 4.8 0.00 0.00 0.00 76 1022.6
20260906062445 16 121 0.0 4.8 0.00 0.00 0.00 76 1022.7
20260906062343 16 194 1.6 4.8 0.00 0.00 0.00 77 1022.6
20260906062245 16 219 3.2 4.8 0.00 0.00 0.00 77 1022.7
20260906062203 16 126 1.6 4.8 0.00 0.00 0.00 76 1022.7
20260906062144 16 182 0.0 4.8 0.00 0.00 0.00 77 1022.4
20260906062044 16 189 0.0 4.8 0.00 0.00 0.00 77 1022.3
20260906061945 16 186 0.0 4.8 0.00 0.00 0.00 77 1022.7
20260906061845 16 168 0.0 4.8 0.00 0.00 0.00 76 1022.5
20260906061744 16 182 1.6 4.8 0.00 0.00 0.00 76 1022.6
20260906061705 16 212 0.0 4.8 0.00 0.00 0.00 77 1022.6
20260906061643 16 158 1.6 4.8 0.00 0.00 0.00 77 1022.4
20260906061543 16 198 1.6 4.8 0.00 0.00 0.00 77 1022.5
20260906061443 16 171 1.6 4.8 0.00 0.00 0.00 77 1022.5
20260906061344 16 212 0.0 3.2 0.00 0.00 0.00 77 1022.9
20260906061243 16 198 0.0 3.2 0.00 0.00 0.00 77 1022.6
20260906061204 16 196 0.0 3.2 0.00 0.00 0.00 77 1022.6
20260906061143 16 251 1.6 3.2 0.00 0.00 0.00 78 1022.5
20260906061122 16 196 0.0 3.2 0.00 0.00 0.00 77 1022.5
20260906061106 16 192 0.0 3.2 0.00 0.00 0.00 78 1022.3
20260906061049 16 257 0.0 3.2 0.00 0.00 0.00 78 1022.5
20260906060812 15 198 0.0 3.2 0.00 0.00 0.00 78 1022.3
20260906060805 15 177 0.0 3.2 0.00 0.00 0.00 78 1022.4
20260906060446 15 99 1.6 3.2 0.00 0.00 0.00 79 1022.6
20260906060429 15 212 0.0 3.2 0.00 0.00 0.00 79 1022.5
20260906060412 15 204 0.0 3.2 0.00 0.00 0.00 79 1022.5
20260906060357 16 199 1.6 3.2 0.00 0.00 0.00 79 1022.5
20260906060043 15 285 0.0 3.2 0.00 0.00 0.00 79 1022.5
20260906055943 15 283 0.0 3.2 0.00 0.00 0.00 79 1022.4
20260906055845 15 194 0.0 3.2 0.00 0.00 0.00 79 1022.3
20260906055704 15 171 0.0 4.8 0.00 0.00 0.00 79 1022.4
20260906055645 15 191 0.0 4.8 0.00 0.00 0.00 80 1022.5
20260906055623 15 197 0.0 4.8 0.00 0.00 0.00 80 1022.6
20260906055605 15 161 0.0 4.8 0.00 0.00 0.00 81 1022.5
20260906055246 15 187 0.0 11.3 0.00 0.00 0.00 81 1022.5
20260906055203 15 185 0.0 11.3 0.00 0.00 0.00 81 1022.5
20260906055144 15 191 1.6 11.3 0.00 0.00 0.00 81 1022.3
20260906055122 15 194 0.0 11.3 0.00 0.00 0.00 82 1022.3
20260906055105 15 184 0.0 11.3 0.00 0.00 0.00 82 1022.3
20260906054743 15 346 3.2 11.3 0.00 0.00 0.00 82 1022.3
20260906054716 15 222 3.2 11.3 0.00 0.00 0.00 82 1022.3
20260906054643 15 153 3.2 11.3 0.00 0.00 0.00 82 1022.3
20260906054543 15 59 3.2 11.3 0.00 0.00 0.00 81 1022.3
20260906054519 15 198 0.0 11.3 0.00 0.00 0.00 82 1022.1
20260906054505 15 180 0.0 4.8 0.00 0.00 0.00 82 1022.2
20260906054203 14 185 0.0 4.8 0.00 0.00 0.00 83 1022.3
20260906054143 14 190 0.0 4.8 0.00 0.00 0.00 83 1022.4
20260906054043 14 206 1.6 1.6 0.00 0.00 0.00 83 1022.5
20260906054013 14 160 0.0 3.2 0.00 0.00 0.00 83 1022.4
20260906053956 14 194 0.0 3.2 0.00 0.00 0.00 84 1022.3
20260906053941 14 188 0.0 3.2 0.00 0.00 0.00 84 1022.2
20260906053924 14 188 0.0 3.2 0.00 0.00 0.00 85 1022.2
20260906053916 14 194 0.0 3.2 0.00 0.00 0.00 85 1022.3
20260906053639 13 196 0.0 3.2 0.00 0.00 0.00 85 1022.0
20260906053624 13 210 0.0 3.2 0.00 0.00 0.00 85 1022.3
20260906053348 13 197 0.0 3.2 0.00 0.00 0.00 85 1022.2
20260906053340 13 199 0.0 3.2 0.00 0.00 0.00 85 1022.1
20260906053324 13 185 0.0 3.2 0.00 0.00 0.00 85 1022.3
20260906053309 13 192 0.0 3.2 0.00 0.00 0.00 85 1022.3
20260906053032 13 201 0.0 3.2 0.00 0.00 0.00 85 1022.1
20260906053015 13 186 0.0 3.2 0.00 0.00 0.00 86 1022.1
20260906052443 13 189 0.0 1.6 0.00 0.00 0.00 86 1022.3
20260906052403 13 192 0.0 6.4 0.00 0.00 0.00 87 1022.0
20260906052356 13 189 0.0 1.6 0.00 0.00 0.00 86 1022.3
20260906052340 13 199 0.0 1.6 0.00 0.00 0.00 86 1022.2
20260906052326 13 190 0.0 1.6 0.00 0.00 0.00 87 1022.2
20260906052319 13 191 0.0 1.6 0.00 0.00 0.00 87 1022.2
20260906052305 13 192 0.0 3.2 0.00 0.00 0.00 87 1022.2
20260906052246 13 188 0.0 3.2 0.00 0.00 0.00 87 1022.2
20260906052230 13 195 0.0 3.2 0.00 0.00 0.00 87 1022.0
20260906052214 13 186 0.0 3.2 0.00 0.00 0.00 87 1022.1
20260906052158 13 188 0.0 3.2 0.00 0.00 0.00 87 1022.1
20260906052150 13 164 0.0 3.2 0.00 0.00 0.00 87 1022.2
20260906051913 13 182 0.0 6.4 0.00 0.00 0.00 87 1022.2
20260906051143 13 196 0.0 6.4 0.00 0.00 0.00 87 1022.0
20260906051044 13 191 0.0 6.4 0.00 0.00 0.00 87 1021.9
20260906050943 13 194 0.0 6.4 0.00 0.00 0.00 87 1022.2
20260906050843 13 211 0.0 6.4 0.00 0.00 0.00 87 1021.9
20260906050744 13 187 0.0 6.4 0.00 0.00 0.00 88 1021.8
20260906050716 13 199 0.0 6.4 0.00 0.00 0.00 88 1021.8
20260906050643 13 208 1.6 6.4 0.00 0.00 0.00 88 1021.9
20260906050543 13 202 0.0 3.2 0.00 0.00 0.00 88 1021.7
20260906050516 13 132 0.0 3.2 0.00 0.00 0.00 88 1022.1
20260906050508 13 186 0.0 3.2 0.00 0.00 0.00 88 1021.9
20260906050452 13 189 0.0 3.2 0.00 0.00 0.00 88 1021.8
20260906050437 13 198 0.0 3.2 0.00 0.00 0.00 88 1022.1
20260906050143 13 185 0.0 3.2 0.00 0.00 0.00 88 1022.1
20260906050043 13 203 1.6 3.2 0.00 0.00 0.00 88 1021.8
20260906045942 13 203 0.0 1.6 0.00 0.00 0.00 88 1021.9
20260906045843 13 210 0.0 1.6 0.00 0.00 0.00 88 1021.8
20260906045744 13 199 0.0 1.6 0.00 0.00 0.00 89 1021.7
20260906045703 12 202 0.0 1.6 0.00 0.00 0.00 89 1021.7
20260906045643 12 200 0.0 1.6 0.00 0.00 0.00 89 1021.8
20260906045621 12 219 0.0 3.2 0.00 0.00 0.00 89 1021.6
20260906045605 12 203 0.0 3.2 0.00 0.00 0.00 89 1021.7
20260906045243 12 201 1.6 3.2 0.00 0.00 0.00 89 1021.6
20260906045204 12 194 0.0 3.2 0.00 0.00 0.00 89 1021.6
20260906045143 12 194 0.0 3.2 0.00 0.00 0.00 89 1021.6
20260906045042 12 192 0.0 3.2 0.00 0.00 0.00 89 1021.6
20260906044944 12 192 0.0 3.2 0.00 0.00 0.00 89 1021.7
20260906044928 12 190 0.0 3.2 0.00 0.00 0.00 89 1021.6
20260906044913 12 194 0.0 3.2 0.00 0.00 0.00 89 1021.8
20260906044855 12 194 0.0 3.2 0.00 0.00 0.00 89 1021.8
20260906044543 12 208 1.6 3.2 0.00 0.00 0.00 89 1021.6
20260906044502 12 198 0.0 1.6 0.00 0.00 0.00 89 1021.6
20260906044456 12 256 0.0 1.6 0.00 0.00 0.00 89 1021.7
20260906044439 12 174 0.0 1.6 0.00 0.00 0.00 89 1021.9
20260906044423 12 203 1.6 1.6 0.00 0.00 0.00 89 1021.6
20260906044143 12 196 0.0 1.6 0.00 0.00 0.00 89 1021.7
20260906044043 12 214 0.0 1.6 0.00 0.00 0.00 89 1021.6
20260906044004 12 192 0.0 1.6 0.00 0.00 0.00 89 1021.5
20260906043957 12 187 0.0 1.6 0.00 0.00 0.00 89 1021.7
20260906043941 12 204 0.0 1.6 0.00 0.00 0.00 89 1021.7
20260906043924 12 200 0.0 1.6 0.00 0.00 0.00 89 1021.5
20260906043643 12 192 0.0 1.6 0.00 0.00 0.00 89 1021.8
20260906043619 12 198 0.0 1.6 0.00 0.00 0.00 89 1021.6
20260906043603 12 200 0.0 1.6 0.00 0.00 0.00 89 1021.7
20260906043325 12 259 0.0 1.6 0.00 0.00 0.00 89 1021.6
20260906043310 12 197 0.0 1.6 0.00 0.00 0.00 90 1021.6
20260906043303 12 199 0.0 1.6 0.00 0.00 0.00 90 1021.4
20260906042943 12 194 0.0 3.2 0.00 0.00 0.00 90 1021.5
20260906042843 12 192 0.0 3.2 0.00 0.00 0.00 90 1021.5
20260906042828 12 194 0.0 3.2 0.00 0.00 0.00 90 1021.6
20260906042811 12 189 0.0 3.2 0.00 0.00 0.00 90 1021.6
20260906042803 12 200 0.0 3.2 0.00 0.00 0.00 90 1021.5
20260906042443 12 198 0.0 3.2 0.00 0.00 0.00 90 1021.7
20260906042343 12 199 0.0 3.2 0.00 0.00 0.00 90 1021.7
20260906042242 12 192 0.0 3.2 0.00 0.00 0.00 90 1021.6
20260906042216 12 195 0.0 3.2 0.00 0.00 0.00 90 1021.6
20260906042207 12 206 0.0 3.2 0.00 0.00 0.00 90 1021.5
20260906042151 12 197 0.0 3.2 0.00 0.00 0.00 90 1021.5
20260906041900 12 200 0.0 3.2 0.00 0.00 0.00 90 1021.1
20260906041855 12 195 0.0 3.2 0.00 0.00 0.00 90 1021.2
20260906041850 12 196 0.0 1.6 0.00 0.00 0.00 91 1021.4
20260906041843 12 200 0.0 3.2 0.00 0.00 0.00 90 1021.5
20260906041828 12 203 0.0 3.2 0.00 0.00 0.00 90 1021.6
20260906041813 12 208 0.0 3.2 0.00 0.00 0.00 90 1021.6
20260906041803 12 154 0.0 3.2 0.00 0.00 0.00 90 1021.5
20260906041748 12 186 0.0 3.2 0.00 0.00 0.00 90 1021.5
20260906041731 12 190 0.0 3.2 0.00 0.00 0.00 90 1021.6
20260906041715 12 183 0.0 3.2 0.00 0.00 0.00 90 1021.5
20260906041700 12 180 0.0 1.6 0.00 0.00 0.00 91 1021.5
20260906041647 12 198 0.0 1.6 0.00 0.00 0.00 91 1021.5
20260906041639 12 199 0.0 1.6 0.00 0.00 0.00 91 1021.5
20260906041623 12 196 0.0 1.6 0.00 0.00 0.00 91 1021.5
20260906041127 12 196 0.0 1.6 0.00 0.00 0.00 91 1021.4
20260906040649 12 199 0.0 1.6 0.00 0.00 0.00 91 1021.3
20260906040633 12 195 0.0 1.6 0.00 0.00 0.00 91 1021.3
20260906040616 12 192 0.0 1.6 0.00 0.00 0.00 91 1021.4
20260906040601 12 200 0.0 1.6 0.00 0.00 0.00 91 1021.2
20260906040328 12 196 0.0 1.6 0.00 0.00 0.00 91 1021.4
20260906040306 12 196 0.0 1.6 0.00 0.00 0.00 91 1021.5
20260906040250 12 199 0.0 1.6 0.00 0.00 0.00 91 1021.4
20260906040233 12 191 0.0 1.6 0.00 0.00 0.00 91 1021.4
20260906035748 12 203 0.0 3.2 0.00 0.00 0.00 91 1021.3
20260906035732 12 200 0.0 3.2 0.00 0.00 0.00 91 1021.3
20260906035723 12 198 0.0 3.2 0.00 0.00 0.00 91 1021.3
20260906035707 12 195 0.0 3.2 0.00 0.00 0.00 91 1021.3
20260906035431 12 201 0.0 3.2 0.00 0.00 0.00 91 1021.4
20260906035401 12 203 0.0 3.2 0.00 0.00 0.00 90 1021.5
20260906035352 12 200 0.0 3.2 0.00 0.00 0.00 90 1021.3
20260906035337 12 209 0.0 3.2 0.00 0.00 0.00 90 1021.2
20260906035320 12 204 0.0 3.2 0.00 0.00 0.00 90 1021.2
20260906035306 12 194 0.0 3.2 0.00 0.00 0.00 90 1021.1
20260906035248 12 199 0.0 3.2 0.00 0.00 0.00 90 1021.1
20260906035020 12 205 0.0 3.2 0.00 0.00 0.00 91 1021.2
20260906035004 12 199 0.0 3.2 0.00 0.00 0.00 90 1021.1
20260906034729 12 199 0.0 3.2 0.00 0.00 0.00 90 1021.3
20260906034713 12 200 0.0 3.2 0.00 0.00 0.00 90 1021.3
20260906034700 12 201 0.0 3.2 0.00 0.00 0.00 90 1021.3
20260906034212 12 204 1.6 3.2 0.00 0.00 0.00 90 1021.3
20260906033936 12 207 1.6 3.2 0.00 0.00 0.00 90 1021.2
20260906033708 12 179 0.0 3.2 0.00 0.00 0.00 90 1021.1
20260906033652 12 192 1.6 3.2 0.00 0.00 0.00 90 1021.0
20260906033331 12 199 0.0 1.6 0.00 0.00 0.00 90 1021.3
20260906033232 12 196 0.0 1.6 0.00 0.00 0.00 90 1021.3
20260906033203 12 199 0.0 1.6 0.00 0.00 0.00 90 1021.3
20260906033131 12 200 0.0 1.6 0.00 0.00 0.00 90 1021.1
20260906033107 12 206 0.0 1.6 0.00 0.00 0.00 90 1021.2
20260906033051 12 196 0.0 0.0 0.00 0.00 0.00 90 1021.1
20260906032731 12 201 0.0 0.0 0.00 0.00 0.00 90 1021.3
20260906032703 12 199 0.0 0.0 0.00 0.00 0.00 90 1021.3
20260906032632 12 189 0.0 0.0 0.00 0.00 0.00 90 1021.3
20260906032606 12 203 0.0 3.2 0.00 0.00 0.00 90 1021.2
20260906032551 12 198 0.0 3.2 0.00 0.00 0.00 90 1021.1
20260906032203 12 199 0.0 3.2 0.00 0.00 0.00 90 1021.0
20260906032132 12 187 0.0 3.2 0.00 0.00 0.00 90 1021.0
20260906032031 12 192 0.0 3.2 0.00 0.00 0.00 90 1021.2
20260906031931 12 192 0.0 3.2 0.00 0.00 0.00 90 1021.2
20260906031830 12 192 0.0 3.2 0.00 0.00 0.00 90 1021.0
20260906031731 12 194 0.0 3.2 0.00 0.00 0.00 90 1021.1
20260906031704 12 192 0.0 3.2 0.00 0.00 0.00 90 1021.1
20260906031631 12 123 1.6 3.2 0.00 0.00 0.00 90 1021.2
20260906031531 12 209 0.0 3.2 0.00 0.00 0.00 90 1021.0
20260906031504 12 199 0.0 1.6 0.00 0.00 0.00 91 1021.1
20260906031457 12 198 0.0 1.6 0.00 0.00 0.00 91 1021.2
20260906031450 12 186 0.0 3.2 0.00 0.00 0.00 90 1021.1
20260906031435 12 199 0.0 3.2 0.00 0.00 0.00 90 1021.0
20260906031419 12 199 0.0 3.2 0.00 0.00 0.00 90 1021.0
20260906031405 12 202 0.0 3.2 0.00 0.00 0.00 91 1021.0
20260906031356 12 211 0.0 3.2 0.00 0.00 0.00 90 1021.1
20260906031340 12 199 0.0 3.2 0.00 0.00 0.00 90 1021.1
20260906031103 12 198 0.0 3.2 0.00 0.00 0.00 90 1021.0
20260906030828 12 230 1.6 3.2 0.00 0.00 0.00 91 1021.0
20260906030819 12 198 0.0 3.2 0.00 0.00 0.00 91 1020.9
20260906030803 12 193 0.0 3.2 0.00 0.00 0.00 91 1020.8
20260906030747 12 196 0.0 1.6 0.00 0.00 0.00 91 1021.1
20260906030730 12 196 0.0 1.6 0.00 0.00 0.00 91 1021.0
20260906030714 12 199 0.0 1.6 0.00 0.00 0.00 91 1021.1
20260906030435 12 196 0.0 1.6 0.00 0.00 0.00 91 1021.1
20260906030419 12 203 0.0 1.6 0.00 0.00 0.00 91 1021.0
20260906025923 12 199 0.0 1.6 0.00 0.00 0.00 91 1021.2
20260906025652 12 198 0.0 1.6 0.00 0.00 0.00 91 1020.9
20260906025645 12 201 0.0 1.6 0.00 0.00 0.00 91 1021.1
20260906025629 12 203 0.0 1.6 0.00 0.00 0.00 91 1020.8
20260906025614 12 196 0.0 1.6 0.00 0.00 0.00 91 1021.0
20260906025558 12 204 0.0 1.6 0.00 0.00 0.00 91 1021.0
20260906025529 12 200 0.0 1.6 0.00 0.00 0.00 91 1021.1
20260906025259 12 202 0.0 1.6 0.00 0.00 0.00 91 1020.9
20260906025243 12 208 0.0 1.6 0.00 0.00 0.00 91 1020.8
20260906025228 12 193 0.0 1.6 0.00 0.00 0.00 91 1020.8
20260906024740 12 199 0.0 1.6 0.00 0.00 0.00 91 1021.0
20260906024500 12 201 0.0 1.6 0.00 0.00 0.00 91 1020.9
20260906024452 12 201 0.0 1.6 0.00 0.00 0.00 91 1020.9
20260906024435 12 196 0.0 1.6 0.00 0.00 0.00 91 1021.0
20260906024420 12 193 0.0 1.6 0.00 0.00 0.00 91 1020.9
20260906024119 12 211 0.0 1.6 0.00 0.00 0.00 91 1020.8
20260906024019 12 192 0.0 0.0 0.00 0.00 0.00 91 1020.6
20260906023920 12 191 0.0 0.0 0.00 0.00 0.00 91 1020.9
20260906023819 12 199 0.0 0.0 0.00 0.00 0.00 91 1020.8
20260906023720 12 197 0.0 0.0 0.00 0.00 0.00 90 1021.0
20260906023704 12 191 0.0 0.0 0.00 0.00 0.00 90 1021.0
20260906023620 12 193 0.0 1.6 0.00 0.00 0.00 90 1020.7
20260906023508 12 195 0.0 1.6 0.00 0.00 0.00 90 1020.8
20260906023407 12 196 0.0 1.6 0.00 0.00 0.00 90 1021.0
20260906023307 12 193 0.0 1.6 0.00 0.00 0.00 90 1020.7
20260906023208 12 198 0.0 1.6 0.00 0.00 0.00 90 1021.0
20260906023108 12 199 0.0 1.6 0.00 0.00 0.00 90 1020.7
20260906023007 12 196 0.0 1.6 0.00 0.00 0.00 90 1020.8
20260906022907 12 197 0.0 1.6 0.00 0.00 0.00 90 1020.7
20260906022808 12 196 0.0 1.6 0.00 0.00 0.00 90 1020.7
20260906022744 12 201 0.0 1.6 0.00 0.00 0.00 90 1020.8
20260906022727 12 201 0.0 1.6 0.00 0.00 0.00 90 1020.6
20260906022711 12 191 0.0 1.6 0.00 0.00 0.00 90 1020.6
20260906022434 12 195 0.0 1.6 0.00 0.00 0.00 90 1020.7
20260906022207 12 189 0.0 1.6 0.00 0.00 0.00 90 1020.8
20260906022106 12 194 0.0 1.6 0.00 0.00 0.00 90 1020.7
20260906022007 12 192 0.0 1.6 0.00 0.00 0.00 90 1020.8
20260906021906 12 184 0.0 1.6 0.00 0.00 0.00 90 1020.8
20260906021807 12 192 0.0 1.6 0.00 0.00 0.00 90 1020.6
20260906021707 12 195 0.0 1.6 0.00 0.00 0.00 90 1020.9
20260906021648 12 194 0.0 3.2 0.00 0.00 0.00 90 1020.7
20260906021640 12 194 0.0 3.2 0.00 0.00 0.00 90 1020.9
20260906021625 12 192 0.0 3.2 0.00 0.00 0.00 90 1020.8
20260906021609 12 200 0.0 3.2 0.00 0.00 0.00 90 1020.8
20260906021553 12 196 0.0 3.2 0.00 0.00 0.00 90 1020.6
20260906021536 12 194 0.0 3.2 0.00 0.00 0.00 90 1020.7
20260906021308 12 190 0.0 3.2 0.00 0.00 0.00 90 1020.7
20260906021044 12 195 0.0 3.2 0.00 0.00 0.00 90 1020.5
20260906021028 12 196 0.0 3.2 0.00 0.00 0.00 90 1020.6
20260906021013 12 151 0.0 3.2 0.00 0.00 0.00 90 1020.7
20260906020948 12 221 1.6 3.2 0.00 0.00 0.00 90 1020.6
20260906020712 12 213 1.6 3.2 0.00 0.00 0.00 90 1020.6
20260906020448 12 192 0.0 3.2 0.00 0.00 0.00 90 1020.6
20260906020433 12 192 0.0 3.2 0.00 0.00 0.00 90 1020.7
20260906020416 12 192 0.0 3.2 0.00 0.00 0.00 90 1020.9
20260906020108 12 223 1.6 3.2 0.00 0.00 0.00 90 1020.6
20260906020007 12 205 0.0 1.6 0.00 0.00 0.00 90 1020.6
20260906015907 12 195 0.0 3.2 0.00 0.00 0.00 90 1020.5
20260906015807 12 199 0.0 3.2 0.00 0.00 0.00 90 1020.5
20260906015708 12 186 0.0 3.2 0.00 0.00 0.00 90 1020.7
20260906015607 12 210 0.0 3.2 0.00 0.00 0.00 91 1020.4
20260906015507 12 191 0.0 3.2 0.00 0.00 0.00 91 1020.5
20260906015407 12 184 0.0 3.2 0.00 0.00 0.00 91 1020.4
20260906015354 12 187 0.0 4.8 0.00 0.00 0.00 91 1020.7
20260906015348 12 180 0.0 4.8 0.00 0.00 0.00 92 1020.4
20260906015340 12 196 0.0 3.2 0.00 0.00 0.00 91 1020.4
20260906015317 12 198 0.0 3.2 0.00 0.00 0.00 91 1020.5
20260906015305 12 164 0.0 3.2 0.00 0.00 0.00 91 1020.5
20260906015026 12 205 1.6 3.2 0.00 0.00 0.00 91 1020.6
20260906015010 12 195 0.0 4.8 0.00 0.00 0.00 91 1020.4
20260906014951 12 187 0.0 4.8 0.00 0.00 0.00 91 1020.7
20260906014725 12 190 0.0 4.8 0.00 0.00 0.00 91 1020.4
20260906014708 12 49 1.6 4.8 0.00 0.00 0.00 91 1020.6
20260906014433 12 189 0.0 4.8 0.00 0.00 0.00 92 1020.6
20260906014416 12 180 0.0 4.8 0.00 0.00 0.00 92 1020.4
20260906014144 12 173 1.6 4.8 0.00 0.00 0.00 92 1020.4
20260906014128 12 207 0.0 4.8 0.00 0.00 0.00 92 1020.5
20260906013809 12 202 0.0 3.2 0.00 0.00 0.00 92 1020.6
20260906013707 12 173 0.0 3.2 0.00 0.00 0.00 92 1020.6
20260906013608 12 196 0.0 3.2 0.00 0.00 0.00 92 1020.4
20260906013507 12 188 0.0 3.2 0.00 0.00 0.00 92 1020.4
20260906013442 12 162 0.0 3.2 0.00 0.00 0.00 92 1020.6
20260906013426 12 191 1.6 3.2 0.00 0.00 0.00 92 1020.4
20260906013404 12 196 0.0 1.6 0.00 0.00 0.00 92 1020.5
20260906013349 12 191 0.0 1.6 0.00 0.00 0.00 92 1020.6
20260906013113 12 182 0.0 3.2 0.00 0.00 0.00 92 1020.3
20260906013057 12 186 0.0 3.2 0.00 0.00 0.00 92 1020.5
20260906012828 12 191 0.0 3.2 0.00 0.00 0.00 92 1020.3
20260906012507 12 199 0.0 3.2 0.00 0.00 0.00 93 1020.2
20260906012407 12 184 1.6 3.2 0.00 0.00 0.00 93 1020.4
20260906012356 13 200 0.0 1.6 0.00 0.00 0.00 93 1020.2
20260906012345 12 196 0.0 3.2 0.00 0.00 0.00 93 1020.4
20260906012323 12 211 1.6 3.2 0.00 0.00 0.00 93 1020.4
20260906012307 12 199 0.0 3.2 0.00 0.00 0.00 93 1020.4
20260906012032 12 199 1.6 3.2 0.00 0.00 0.00 93 1020.4
20260906011808 12 192 0.0 1.6 0.00 0.00 0.00 93 1020.1
20260906011744 12 190 0.0 1.6 0.00 0.00 0.00 93 1020.5
20260906011728 12 192 1.6 1.6 0.00 0.00 0.00 93 1020.3
20260906011451 13 191 0.0 1.6 0.00 0.00 0.00 93 1020.3
20260906011434 13 196 0.0 1.6 0.00 0.00 0.00 93 1020.1
20260906011416 13 200 0.0 1.6 0.00 0.00 0.00 93 1020.2
20260906011107 13 193 0.0 1.6 0.00 0.00 0.00 93 1020.3
20260906011042 13 198 0.0 1.6 0.00 0.00 0.00 93 1020.2
20260906011026 13 205 1.6 1.6 0.00 0.00 0.00 93 1020.4
20260906011011 13 203 0.0 1.6 0.00 0.00 0.00 93 1020.4
20260906010946 13 199 0.0 1.6 0.00 0.00 0.00 93 1020.3
20260906010930 13 196 0.0 1.6 0.00 0.00 0.00 93 1020.3
20260906010914 13 196 0.0 1.6 0.00 0.00 0.00 93 1020.3
20260906010207 13 195 0.0 1.6 0.00 0.00 0.00 93 1020.3
20260906010108 13 194 0.0 1.6 0.00 0.00 0.00 93 1020.2
20260906010007 13 204 0.0 1.6 0.00 0.00 0.00 93 1020.4
20260906005907 13 198 0.0 1.6 0.00 0.00 0.00 93 1020.4
20260906005806 13 191 0.0 1.6 0.00 0.00 0.00 93 1020.4
20260906005707 13 199 0.0 1.6 0.00 0.00 0.00 93 1020.3
20260906005608 13 205 0.0 1.6 0.00 0.00 0.00 93 1020.2
20260906005507 13 199 0.0 1.6 0.00 0.00 0.00 93 1020.5
20260906005408 13 195 0.0 1.6 0.00 0.00 0.00 93 1020.3
20260906005307 13 205 0.0 1.6 0.00 0.00 0.00 93 1020.2
20260906005206 13 194 0.0 1.6 0.00 0.00 0.00 93 1020.5
20260906005108 13 193 0.0 1.6 0.00 0.00 0.00 93 1020.2
20260906005007 13 192 0.0 1.6 0.00 0.00 0.00 93 1020.4
20260906004907 13 198 0.0 1.6 0.00 0.00 0.00 93 1020.3
20260906004807 13 196 0.0 1.6 0.00 0.00 0.00 93 1020.2
20260906004706 13 192 0.0 1.6 0.00 0.00 0.00 93 1020.4
20260906004228 13 198 0.0 1.6 0.00 0.00 0.00 93 1020.6
20260906004156 13 196 0.0 1.6 0.00 0.00 0.00 93 1020.2
20260906003903 13 199 0.0 1.6 0.00 0.00 0.00 93 1020.2
20260906003811 13 196 0.0 1.6 0.00 0.00 0.00 93 1020.4
20260906003804 13 197 0.0 1.6 0.00 0.00 0.00 93 1020.1
20260906003747 13 201 0.0 1.6 0.00 0.00 0.00 93 1020.1
20260906003740 13 203 0.0 1.6 0.00 0.00 0.00 93 1020.1
20260906003725 13 197 0.0 1.6 0.00 0.00 0.00 93 1020.2
20260906003448 13 198 0.0 1.6 0.00 0.00 0.00 93 1020.2
20260906003432 13 204 0.0 1.6 0.00 0.00 0.00 93 1020.4
20260906003204 13 194 0.0 1.6 0.00 0.00 0.00 93 1020.5
20260906003103 13 201 0.0 1.6 0.00 0.00 0.00 93 1020.2
20260906003040 13 205 0.0 1.6 0.00 0.00 0.00 93 1020.0
20260906003024 13 201 0.0 1.6 0.00 0.00 0.00 93 1020.2
20260906002711 13 186 0.0 1.6 0.00 0.00 0.00 93 1020.2
20260906002704 13 186 0.0 1.6 0.00 0.00 0.00 93 1020.4
20260906002603 13 189 0.0 1.6 0.00 0.00 0.00 93 1020.1
20260906002504 13 199 0.0 1.6 0.00 0.00 0.00 93 1020.1
20260906002445 13 194 0.0 1.6 0.00 0.00 0.00 94 1020.1
20260906002429 13 193 0.0 1.6 0.00 0.00 0.00 94 1020.2
20260906002413 13 194 0.0 1.6 0.00 0.00 0.00 94 1020.2
20260906002103 13 199 0.0 1.6 0.00 0.00 0.00 94 1020.3
20260906002003 13 199 0.0 1.6 0.00 0.00 0.00 94 1020.0
20260906001903 13 199 0.0 1.6 0.00 0.00 0.00 94 1020.1
20260906001803 13 190 0.0 1.6 0.00 0.00 0.00 94 1020.2
20260906001724 13 188 0.0 1.6 0.00 0.00 0.00 94 1020.2
20260906001702 13 188 0.0 1.6 0.00 0.00 0.00 94 1020.3
20260906001603 13 200 0.0 3.2 0.00 0.00 0.00 94 1020.4
20260906001504 13 203 0.0 3.2 0.00 0.00 0.00 94 1020.4
20260906001403 13 194 0.0 3.2 0.00 0.00 0.00 94 1020.1
20260906001345 13 200 0.0 3.2 0.00 0.00 0.00 94 1020.0
20260906001330 13 198 0.0 3.2 0.00 0.00 0.00 94 1020.0
20260906001323 13 198 0.0 3.2 0.00 0.00 0.00 94 1019.9
20260906001006 13 192 0.0 3.2 0.00 0.00 0.00 94 1020.0
20260906000951 13 192 0.0 3.2 0.00 0.00 0.00 94 1020.0
20260906000935 13 192 0.0 3.2 0.00 0.00 0.00 94 1019.8
20260906000918 13 245 1.6 3.2 0.00 0.00 0.00 94 1019.8
20260906000858 13 245 1.6 3.2 0.00 0.00 0.00 94 1019.9
20260906000623 13 190 0.0 3.2 0.00 0.00 0.00 94 1020.2
20260906000303 13 199 0.0 3.2 0.00 0.00 0.00 94 1020.0
20260906000212 13 197 0.0 1.6 0.00 0.00 0.00 94 1020.0
20260906000204 13 195 0.0 1.6 0.00 0.00 0.00 94 1020.0
20260906000104 13 204 0.0 1.6 0.00 0.00 0.00 94 1020.2
20260906000004 13 192 0.0 1.6 0.00 0.00 0.00 94 1020.0
20260905235903 13 198 0.0 1.6 0.00 0.00 0.00 94 1019.9
20260905235805 13 205 0.0 1.6 0.00 0.00 0.00 94 1020.2
20260905235747 13 194 0.0 1.6 0.00 0.00 0.00 95 1020.2
20260905235741 13 194 0.0 1.6 0.00 0.00 0.00 95 1020.1
20260905235724 13 191 0.0 1.6 0.00 0.00 0.00 95 1020.1
20260905235404 13 199 0.0 1.6 0.00 0.00 0.00 95 1020.1
20260905235322 13 196 0.0 1.6 0.00 0.00 0.00 95 1020.2
20260905235316 13 199 0.0 1.6 0.00 0.00 0.00 95 1020.0
20260905235259 13 192 0.0 1.6 0.00 0.00 0.00 95 1020.2
20260905235023 13 199 0.0 1.6 0.00 0.00 0.00 95 1020.1
20260905234711 13 187 0.0 1.6 0.00 0.00 0.00 95 1020.1
20260905234703 13 187 0.0 1.6 0.00 0.00 0.00 95 1020.0
20260905234603 13 208 0.0 1.6 0.00 0.00 0.00 95 1020.2
20260905234550 13 196 0.0 1.6 0.00 0.00 0.00 96 1020.1
20260905234541 13 191 0.0 1.6 0.00 0.00 0.00 95 1020.1
20260905234525 13 201 0.0 1.6 0.00 0.00 0.00 95 1020.1
20260905234510 13 199 0.0 1.6 0.00 0.00 0.00 95 1020.2
20260905234453 13 194 0.0 1.6 0.00 0.00 0.00 95 1020.2
20260905234227 13 199 0.0 1.6 0.00 0.00 0.00 95 1020.1
20260905233951 13 198 0.0 1.6 0.00 0.00 0.00 95 1019.9
20260905233935 13 193 0.0 1.6 0.00 0.00 0.00 96 1020.1
20260905233703 13 192 1.6 1.6 0.00 0.00 0.00 96 1020.0
20260905233603 13 193 0.0 1.6 0.00 0.00 0.00 96 1019.9
20260905233510 13 189 0.0 1.6 0.00 0.00 0.00 96 1020.2
20260905233504 13 203 0.0 1.6 0.00 0.00 0.00 96 1020.0
20260905233449 13 200 0.0 1.6 0.00 0.00 0.00 96 1020.0
20260905233432 13 190 0.0 1.6 0.00 0.00 0.00 96 1020.2
20260905233205 13 187 0.0 1.6 0.00 0.00 0.00 96 1020.1
20260905233104 13 196 0.0 1.6 0.00 0.00 0.00 96 1019.9
20260905233003 13 195 0.0 1.6 0.00 0.00 0.00 96 1019.9
20260905232903 13 184 0.0 3.2 0.00 0.00 0.00 96 1020.0
20260905232803 13 200 0.0 3.2 0.00 0.00 0.00 96 1020.1
20260905232711 13 191 0.0 3.2 0.00 0.00 0.00 96 1020.1
20260905232703 13 191 0.0 3.2 0.00 0.00 0.00 96 1020.1
20260905232604 13 186 0.0 3.2 0.00 0.00 0.00 96 1020.0
20260905232503 13 193 0.0 3.2 0.00 0.00 0.00 96 1020.0
20260905232403 13 191 0.0 3.2 0.00 0.00 0.00 96 1020.0
20260905232305 13 184 1.6 3.2 0.00 0.00 0.00 97 1019.9
20260905232211 13 199 0.0 3.2 0.00 0.00 0.00 96 1019.9
20260905232204 13 198 0.0 3.2 0.00 0.00 0.00 96 1020.0
20260905232103 12 205 0.0 3.2 0.00 0.00 0.00 97 1019.9
20260905232003 12 192 0.0 3.2 0.00 0.00 0.00 97 1020.0
20260905231904 12 196 0.0 3.2 0.00 0.00 0.00 97 1019.9
20260905231804 12 172 0.0 3.2 0.00 0.00 0.00 97 1019.9
20260905231746 12 178 1.6 3.2 0.00 0.00 0.00 97 1020.1
20260905231739 12 142 0.0 3.2 0.00 0.00 0.00 97 1020.1
20260905231723 12 199 1.6 3.2 0.00 0.00 0.00 97 1020.0
20260905231404 12 185 0.0 3.2 0.00 0.00 0.00 97 1020.0
20260905231325 12 192 0.0 1.6 0.00 0.00 0.00 97 1019.8
20260905231319 12 174 0.0 3.2 0.00 0.00 0.00 97 1019.8
20260905231303 12 196 0.0 3.2 0.00 0.00 0.00 97 1019.8
20260905231256 12 195 0.0 3.2 0.00 0.00 0.00 97 1019.9
20260905231240 12 192 0.0 3.2 0.00 0.00 0.00 97 1020.0
20260905231017 12 192 0.0 1.6 0.00 0.00 0.00 97 1019.7
20260905231013 13 188 0.0 3.2 0.00 0.00 0.00 97 1019.9
20260905231006 12 175 1.6 3.2 0.00 0.00 0.00 97 1019.8
20260905230955 13 195 0.0 3.2 0.00 0.00 0.00 97 1019.9
20260905230948 12 199 0.0 1.6 0.00 0.00 0.00 97 1019.8
20260905230932 12 196 0.0 1.6 0.00 0.00 0.00 97 1020.1
20260905230914 12 200 0.0 1.6 0.00 0.00 0.00 97 1020.1
20260905230908 12 200 0.0 1.6 0.00 0.00 0.00 97 1020.0
20260905230853 12 198 0.0 1.6 0.00 0.00 0.00 97 1020.0
20260905230836 12 200 0.0 1.6 0.00 0.00 0.00 97 1020.0
20260905230601 12 200 0.0 1.6 0.00 0.00 0.00 97 1019.8
20260905230333 12 195 0.0 1.6 0.00 0.00 0.00 97 1019.8
20260905230317 13 190 0.0 1.6 0.00 0.00 0.00 97 1019.9
20260905230301 12 207 0.0 1.6 0.00 0.00 0.00 97 1019.6
20260905230245 12 193 0.0 1.6 0.00 0.00 0.00 97 1019.6
20260905230230 12 200 0.0 1.6 0.00 0.00 0.00 97 1019.9
20260905230001 12 186 0.0 1.6 0.00 0.00 0.00 97 1019.7
20260905225725 12 195 0.0 3.2 0.00 0.00 0.00 97 1020.0
20260905225449 13 177 1.6 3.2 0.00 0.00 0.00 97 1019.9
20260905225222 13 183 0.0 3.2 0.00 0.00 0.00 97 1019.8
20260905225207 13 200 0.0 3.2 0.00 0.00 0.00 97 1019.8
20260905225151 13 186 0.0 3.2 0.00 0.00 0.00 97 1019.8
20260905225135 13 197 0.0 3.2 0.00 0.00 0.00 97 1019.8
20260905225118 13 199 0.0 3.2 0.00 0.00 0.00 97 1019.8
20260905225100 13 200 0.0 3.2 0.00 0.00 0.00 97 1019.8
20260905225053 13 200 0.0 3.2 0.00 0.00 0.00 97 1019.8
20260905225037 13 200 0.0 1.6 0.00 0.00 0.00 97 1019.6
20260905224801 13 202 0.0 3.2 0.00 0.00 0.00 97 1019.9
20260905224746 13 199 0.0 3.2 0.00 0.00 0.00 97 1019.9
20260905224519 13 194 0.0 3.2 0.00 0.00 0.00 97 1019.9
20260905224243 13 194 0.0 3.2 0.00 0.00 0.00 97 1019.5
20260905223747 13 190 0.0 1.6 0.00 0.00 0.00 97 1019.8
20260905223741 13 199 0.0 1.6 0.00 0.00 0.00 97 1019.9
20260905223731 13 198 0.0 3.2 0.00 0.00 0.00 97 1019.7
20260905223724 13 204 0.0 3.2 0.00 0.00 0.00 97 1019.7
20260905223708 13 199 0.0 3.2 0.00 0.00 0.00 97 1020.1
20260905223652 13 197 0.0 3.2 0.00 0.00 0.00 97 1020.1
20260905223635 13 199 0.0 3.2 0.00 0.00 0.00 97 1019.8
20260905223359 13 186 0.0 3.2 0.00 0.00 0.00 97 1020.0
20260905223352 13 196 0.0 3.2 0.00 0.00 0.00 97 1020.0
20260905223337 13 203 0.0 3.2 0.00 0.00 0.00 97 1020.0
20260905223320 13 206 0.0 1.6 0.00 0.00 0.00 97 1019.8
20260905223304 13 196 0.0 1.6 0.00 0.00 0.00 97 1019.7
20260905223248 13 206 0.0 1.6 0.00 0.00 0.00 97 1019.8
20260905223019 13 185 0.0 1.6 0.00 0.00 0.00 97 1019.7
20260905223004 13 194 0.0 1.6 0.00 0.00 0.00 97 1019.7
20260905222947 13 196 0.0 1.6 0.00 0.00 0.00 97 1019.8
20260905222710 13 198 0.0 1.6 0.00 0.00 0.00 97 1019.9
20260905222223 13 196 0.0 1.6 0.00 0.00 0.00 97 1019.8
20260905221902 13 194 0.0 1.6 0.00 0.00 0.00 97 1020.0
20260905221802 13 194 0.0 1.6 0.00 0.00 0.00 97 1019.8
20260905221710 13 193 0.0 1.6 0.00 0.00 0.00 97 1019.8
20260905221702 13 196 0.0 1.6 0.00 0.00 0.00 97 1019.8
20260905221602 13 196 0.0 1.6 0.00 0.00 0.00 97 1020.0
20260905221503 13 200 0.0 1.6 0.00 0.00 0.00 97 1019.6
20260905221403 13 198 0.0 1.6 0.00 0.00 0.00 97 1019.8
20260905221329 13 199 0.0 1.6 0.00 0.00 0.00 97 1020.0
20260905221322 13 199 0.0 1.6 0.00 0.00 0.00 97 1019.7
20260905221038 13 199 0.0 1.6 0.00 0.00 0.00 97 1019.8
20260905221023 13 203 0.0 1.6 0.00 0.00 0.00 97 1019.7
20260905220710 13 196 0.0 1.6 0.00 0.00 0.00 97 1019.9
20260905220702 13 196 0.0 1.6 0.00 0.00 0.00 97 1019.8
20260905220601 13 192 0.0 1.6 0.00 0.00 0.00 96 1019.8
20260905220503 13 199 0.0 1.6 0.00 0.00 0.00 96 1019.9
20260905220402 13 196 0.0 1.6 0.00 0.00 0.00 96 1019.9
20260905220335 13 196 0.0 0.0 0.00 0.00 0.00 96 1019.9
20260905220319 13 199 0.0 0.0 0.00 0.00 0.00 96 1019.6
20260905220312 13 199 0.0 1.6 0.00 0.00 0.00 96 1019.8
20260905220258 13 202 0.0 1.6 0.00 0.00 0.00 96 1019.7
20260905220242 13 200 0.0 1.6 0.00 0.00 0.00 96 1019.9
20260905215709 13 200 0.0 1.6 0.00 0.00 0.00 96 1019.7
20260905215702 13 200 0.0 1.6 0.00 0.00 0.00 96 1019.9
20260905215602 13 196 0.0 1.6 0.00 0.00 0.00 96 1019.8
20260905215502 13 196 0.0 1.6 0.00 0.00 0.00 96 1019.8
20260905215402 13 196 0.0 1.6 0.00 0.00 0.00 96 1019.8
20260905215344 13 191 0.0 1.6 0.00 0.00 0.00 96 1019.8
20260905215328 13 207 0.0 1.6 0.00 0.00 0.00 96 1019.8
20260905215322 13 199 0.0 1.6 0.00 0.00 0.00 96 1019.8
20260905215039 13 198 0.0 1.6 0.00 0.00 0.00 96 1019.8
20260905215024 13 187 0.0 1.6 0.00 0.00 0.00 96 1020.1
20260905214710 13 211 1.6 1.6 0.00 0.00 0.00 96 1019.9
20260905214702 13 199 0.0 1.6 0.00 0.00 0.00 96 1019.9
20260905214602 13 197 0.0 1.6 0.00 0.00 0.00 96 1019.9
20260905214550 13 199 0.0 1.6 0.00 0.00 0.00 96 1019.8
20260905214546 13 199 0.0 1.6 0.00 0.00 0.00 95 1019.7
20260905214538 13 197 0.0 1.6 0.00 0.00 0.00 96 1019.8
20260905214521 13 198 0.0 1.6 0.00 0.00 0.00 96 1019.9
20260905214505 13 199 0.0 1.6 0.00 0.00 0.00 96 1019.8
20260905214239 13 192 0.0 1.6 0.00 0.00 0.00 96 1020.0
20260905214223 13 207 0.0 1.6 0.00 0.00 0.00 96 1019.7
20260905213947 13 194 0.0 1.6 0.00 0.00 0.00 96 1019.9
20260905213932 13 190 0.0 1.6 0.00 0.00 0.00 95 1019.9
20260905213702 13 199 0.0 1.6 0.00 0.00 0.00 95 1019.6
20260905213640 13 196 0.0 1.6 0.00 0.00 0.00 95 1019.7
20260905213623 13 196 0.0 1.6 0.00 0.00 0.00 95 1019.8
20260905213302 13 200 0.0 1.6 0.00 0.00 0.00 95 1019.8
20260905213210 13 200 0.0 1.6 0.00 0.00 0.00 95 1019.8
20260905213202 13 197 0.0 1.6 0.00 0.00 0.00 95 1019.7
20260905213102 13 178 0.0 1.6 0.00 0.00 0.00 95 1019.7
20260905213002 13 196 0.0 1.6 0.00 0.00 0.00 95 1019.7
20260905212901 13 198 0.0 1.6 0.00 0.00 0.00 95 1019.6
20260905212802 13 196 0.0 1.6 0.00 0.00 0.00 95 1019.6
20260905212710 13 202 0.0 1.6 0.00 0.00 0.00 95 1019.6
20260905212702 13 204 0.0 1.6 0.00 0.00 0.00 95 1019.8
20260905212636 13 196 0.0 0.0 0.00 0.00 0.00 95 1019.8
20260905212621 13 199 0.0 0.0 0.00 0.00 0.00 95 1019.8
20260905212319 13 199 0.0 0.0 0.00 0.00 0.00 95 1019.6
20260905212312 13 199 0.0 0.0 0.00 0.00 0.00 95 1019.7
20260905212257 13 196 0.0 0.0 0.00 0.00 0.00 94 1019.9
20260905212021 13 196 0.0 0.0 0.00 0.00 0.00 94 1019.6
20260905212005 13 198 0.0 0.0 0.00 0.00 0.00 94 1019.6
20260905211947 13 199 0.0 0.0 0.00 0.00 0.00 94 1019.7
20260905211721 13 198 0.0 0.0 0.00 0.00 0.00 94 1019.7
20260905211705 13 188 0.0 0.0 0.00 0.00 0.00 94 1019.5
20260905211649 13 201 0.0 0.0 0.00 0.00 0.00 94 1019.3
20260905211413 13 196 0.0 3.2 0.00 0.00 0.00 94 1019.6
20260905211102 13 198 0.0 3.2 0.00 0.00 0.00 94 1019.6
20260905211001 13 196 0.0 3.2 0.00 0.00 0.00 94 1019.7
20260905210902 13 195 0.0 3.2 0.00 0.00 0.00 93 1019.7
20260905210840 13 196 0.0 3.2 0.00 0.00 0.00 93 1019.6
20260905210821 13 200 0.0 3.2 0.00 0.00 0.00 93 1019.6
20260905210815 13 196 0.0 3.2 0.00 0.00 0.00 93 1019.4
20260905210759 13 195 0.0 3.2 0.00 0.00 0.00 93 1019.4
20260905210744 13 196 0.0 3.2 0.00 0.00 0.00 93 1019.6
20260905210727 13 198 0.0 3.2 0.00 0.00 0.00 93 1019.6
20260905210450 13 201 0.0 3.2 0.00 0.00 0.00 92 1019.6
20260905210224 13 209 0.0 3.2 0.00 0.00 0.00 92 1019.8
20260905210208 13 192 0.0 3.2 0.00 0.00 0.00 92 1019.7
20260905210152 13 203 0.0 3.2 0.00 0.00 0.00 92 1019.8
20260905205914 13 137 0.0 3.2 0.00 0.00 0.00 92 1019.7
20260905205639 15 222 1.6 9.7 0.00 0.00 0.00 81 1019.9
20260905205634 14 211 3.2 6.4 0.00 0.00 0.00 87 1019.9
20260905205626 13 187 0.0 4.8 0.00 0.00 0.00 91 1019.9
20260905205610 13 211 1.6 4.8 0.00 0.00 0.00 91 1019.7
20260905205554 13 172 0.0 4.8 0.00 0.00 0.00 90 1019.9
20260905205329 13 194 1.6 4.8 0.00 0.00 0.00 90 1019.9
20260905205313 13 200 0.0 4.8 0.00 0.00 0.00 90 1019.9
20260905205306 13 211 1.6 4.8 0.00 0.00 0.00 90 1020.1
20260905205250 14 192 0.0 4.8 0.00 0.00 0.00 89 1020.0
20260905205234 14 151 1.6 4.8 0.00 0.00 0.00 89 1019.7
20260905204959 14 191 0.0 4.8 0.00 0.00 0.00 87 1019.9
20260905204729 14 186 0.0 6.4 0.00 0.00 0.00 87 1020.0
20260905204713 14 186 1.6 9.7 0.00 0.00 0.00 86 1020.1
20260905204657 14 165 1.6 9.7 0.00 0.00 0.00 86 1019.7
20260905204641 15 217 1.6 9.7 0.00 0.00 0.00 85 1020.0
20260905204626 15 206 0.0 9.7 0.00 0.00 0.00 84 1019.6
20260905204609 15 207 0.0 9.7 0.00 0.00 0.00 84 1019.6
20260905204603 15 207 0.0 9.7 0.00 0.00 0.00 84 1019.7
20260905204328 15 226 1.6 9.7 0.00 0.00 0.00 82 1020.0
20260905204052 15 127 1.6 9.7 0.00 0.00 0.00 81 1019.9
20260905203824 15 186 1.6 9.7 0.00 0.00 0.00 81 1019.8
20260905203502 15 159 1.6 6.4 0.00 0.00 0.00 80 1019.8
20260905203403 15 202 0.0 6.4 0.00 0.00 0.00 79 1019.7
20260905203302 15 174 1.6 6.4 0.00 0.00 0.00 79 1019.7
20260905203244 15 75 3.2 6.4 0.00 0.00 0.00 78 1019.7
20260905203237 15 75 3.2 6.4 0.00 0.00 0.00 78 1019.6
20260905203222 15 78 3.2 11.3 0.00 0.00 0.00 78 1019.7
20260905202902 15 85 1.6 11.3 0.00 0.00 0.00 77 1019.5
20260905202850 16 66 6.4 11.3 0.00 0.00 0.00 74 1019.5
20260905202840 16 67 3.2 11.3 0.00 0.00 0.00 77 1019.5
20260905202821 16 253 1.6 11.3 0.00 0.00 0.00 76 1019.5
20260905202814 16 116 1.6 11.3 0.00 0.00 0.00 76 1019.6
20260905202758 16 24 3.2 11.3 0.00 0.00 0.00 76 1019.8
20260905202741 16 203 0.0 11.3 0.00 0.00 0.00 76 1019.7
20260905202726 16 143 1.6 11.3 0.00 0.00 0.00 75 1019.4
20260905202709 16 113 3.2 11.3 0.00 0.00 0.00 75 1019.5
20260905202223 16 219 4.8 6.4 0.00 0.00 0.00 74 1019.5
20260905201902 16 57 1.6 3.2 0.00 0.00 0.00 74 1019.0
20260905201846 16 138 1.6 3.2 0.00 0.00 0.00 73 1019.0
20260905201828 16 178 0.0 1.6 0.00 0.00 0.00 73 1019.0
20260905201822 16 194 0.0 1.6 0.00 0.00 0.00 73 1018.8
20260905201539 16 174 1.6 1.6 0.00 0.00 0.00 73 1018.4
20260905201522 16 196 0.0 1.6 0.00 0.00 0.00 73 1018.5
20260905201210 16 200 0.0 1.6 0.00 0.00 0.00 73 1018.7
20260905201202 16 200 0.0 1.6 0.00 0.00 0.00 73 1018.3
20260905201102 16 200 0.0 1.6 0.00 0.00 0.00 73 1018.2
20260905201002 16 200 0.0 1.6 0.00 0.00 0.00 73 1018.3
20260905200902 16 203 0.0 1.6 0.00 0.00 0.00 72 1018.4
20260905200802 16 204 0.0 1.6 0.00 0.00 0.00 72 1018.5
20260905200710 16 203 0.0 1.6 0.00 0.00 0.00 72 1018.5
20260905200703 16 203 0.0 1.6 0.00 0.00 0.00 72 1018.2
20260905200601 16 199 0.0 1.6 0.00 0.00 0.00 73 1018.1
20260905200402 16 200 0.0 0.0 0.00 0.00 0.00 73 1018.1
20260905200302 16 199 0.0 0.0 0.00 0.00 0.00 73 1018.1
20260905200210 16 199 0.0 0.0 0.00 0.00 0.00 73 1018.1
20260905200201 16 199 0.0 0.0 0.00 0.00 0.00 73 1018.1
20260905200004 16 199 0.0 0.0 0.00 0.00 0.00 73 1018.1
20260905195902 16 199 0.0 0.0 0.00 0.00 0.00 72 1018.1
20260905195802 16 199 0.0 0.0 0.00 0.00 0.00 72 1018.1
20260905195710 16 199 0.0 0.0 0.00 0.00 0.00 72 1018.1
20260905195703 16 199 0.0 0.0 0.00 0.00 0.00 72 1018.2
20260905195603 16 199 0.0 0.0 0.00 0.00 0.00 72 1018.0
20260905195501 16 199 0.0 0.0 0.00 0.00 0.00 72 1018.2
20260905195402 16 199 0.0 0.0 0.00 0.00 0.00 72 1018.2
20260905195338 16 199 0.0 0.0 0.00 0.00 0.00 72 1018.1
20260905195322 16 200 0.0 0.0 0.00 0.00 0.00 73 1018.1
20260905195315 16 199 0.0 0.0 0.00 0.00 0.00 73 1018.2
20260905195300 16 200 0.0 0.0 0.00 0.00 0.00 72 1018.2
20260905195243 16 200 0.0 0.0 0.00 0.00 0.00 72 1018.2
20260905194710 17 200 0.0 0.0 0.00 0.00 0.00 72 1018.0
20260905194702 17 200 0.0 0.0 0.00 0.00 0.00 72 1018.5
20260905194603 17 200 0.0 0.0 0.00 0.00 0.00 72 1018.3
20260905194503 17 200 0.0 0.0 0.00 0.00 0.00 72 1018.1
20260905194445 17 200 0.0 0.0 0.00 0.00 0.00 72 1018.3
20260905194413 17 200 0.0 0.0 0.00 0.00 0.00 72 1017.9
20260905194102 17 200 0.0 0.0 0.00 0.00 0.00 72 1018.2
20260905194002 17 200 0.0 0.0 0.00 0.00 0.00 72 1018.0
20260905193903 17 200 0.0 1.6 0.00 0.00 0.00 72 1018.0
20260905193821 17 200 0.0 1.6 0.00 0.00 0.00 72 1018.3
20260905193814 17 200 0.0 1.6 0.00 0.00 0.00 72 1018.0
20260905193759 17 201 0.0 1.6 0.00 0.00 0.00 73 1017.9
20260905193743 17 201 0.0 1.6 0.00 0.00 0.00 73 1017.9
20260905193728 17 201 0.0 1.6 0.00 0.00 0.00 73 1017.9
20260905193710 17 202 0.0 1.6 0.00 0.00 0.00 73 1018.1
20260905193654 17 202 0.0 1.6 0.00 0.00 0.00 72 1018.1
20260905192926 17 199 0.0 1.6 0.00 0.00 0.00 71 1018.0
20260905192920 17 200 0.0 0.0 0.00 0.00 0.00 71 1018.1
20260905192904 17 200 0.0 0.0 0.00 0.00 0.00 72 1018.1
20260905192847 17 200 0.0 1.6 0.00 0.00 0.00 72 1018.1
20260905192840 17 200 0.0 1.6 0.00 0.00 0.00 72 1018.0
20260905192826 17 200 0.0 1.6 0.00 0.00 0.00 71 1018.0
20260905192811 17 201 0.0 1.6 0.00 0.00 0.00 72 1018.0
20260905192534 17 199 0.0 1.6 0.00 0.00 0.00 72 1018.0
20260905192518 17 199 0.0 1.6 0.00 0.00 0.00 71 1018.0
20260905192511 17 199 0.0 1.6 0.00 0.00 0.00 71 1018.0
20260905192456 17 199 0.0 1.6 0.00 0.00 0.00 72 1017.9
20260905192440 17 199 0.0 1.6 0.00 0.00 0.00 71 1017.9
20260905192424 17 199 0.0 1.6 0.00 0.00 0.00 71 1018.2
20260905192408 17 199 0.0 1.6 0.00 0.00 0.00 71 1018.2
20260905192139 17 199 0.0 1.6 0.00 0.00 0.00 71 1018.0
20260905192123 17 190 0.0 1.6 0.00 0.00 0.00 71 1018.0
20260905192107 17 198 0.0 1.6 0.00 0.00 0.00 71 1018.0
20260905191611 17 197 0.0 1.6 0.00 0.00 0.00 70 1018.1
20260905191604 17 197 0.0 1.6 0.00 0.00 0.00 69 1018.1
20260905190802 17 164 0.0 1.6 0.00 0.00 0.00 69 1018.1
20260905190710 17 198 0.0 1.6 0.00 0.00 0.00 69 1018.1
20260905190702 17 198 0.0 1.6 0.00 0.00 0.00 69 1018.1
20260905190602 17 199 0.0 1.6 0.00 0.00 0.00 69 1017.8
20260905190503 17 199 0.0 1.6 0.00 0.00 0.00 69 1017.8
20260905190404 17 196 0.0 1.6 0.00 0.00 0.00 69 1017.8
20260905190302 17 196 0.0 1.6 0.00 0.00 0.00 69 1017.8
20260905190210 17 196 0.0 1.6 0.00 0.00 0.00 69 1017.8
20260905190202 17 196 0.0 1.6 0.00 0.00 0.00 69 1017.8
20260905190003 17 194 0.0 1.6 0.00 0.00 0.00 69 1018.0
20260905185903 17 190 0.0 1.6 0.00 0.00 0.00 69 1017.9
20260905185802 17 188 0.0 1.6 0.00 0.00 0.00 69 1017.9
20260905185710 17 198 0.0 1.6 0.00 0.00 0.00 69 1018.0
20260905185704 17 198 0.0 1.6 0.00 0.00 0.00 69 1017.7
20260905185648 17 198 0.0 1.6 0.00 0.00 0.00 69 1017.7
20260905185504 17 198 0.0 1.6 0.00 0.00 0.00 69 1018.1
20260905185446 17 196 0.0 1.6 0.00 0.00 0.00 70 1017.9
20260905185429 17 198 0.0 1.6 0.00 0.00 0.00 70 1017.8
20260905185413 17 198 0.0 1.6 0.00 0.00 0.00 69 1017.8
20260905185138 17 196 0.0 1.6 0.00 0.00 0.00 70 1017.8
20260905185123 17 214 0.0 1.6 0.00 0.00 0.00 71 1017.7
20260905184804 17 201 0.0 1.6 0.00 0.00 0.00 71 1017.7
20260905184710 17 199 0.0 1.6 0.00 0.00 0.00 71 1017.8
20260905184702 17 199 0.0 1.6 0.00 0.00 0.00 71 1017.8
20260905184637 17 197 0.0 0.0 0.00 0.00 0.00 72 1017.7
20260905184629 17 196 0.0 0.0 0.00 0.00 0.00 72 1017.6
20260905184613 17 196 0.0 0.0 0.00 0.00 0.00 72 1017.6
20260905184558 17 197 0.0 0.0 0.00 0.00 0.00 72 1017.8
20260905184542 17 197 0.0 0.0 0.00 0.00 0.00 72 1017.7
20260905184315 17 197 0.0 0.0 0.00 0.00 0.00 72 1017.8
20260905184300 17 198 0.0 0.0 0.00 0.00 0.00 71 1017.5
20260905184244 17 198 0.0 0.0 0.00 0.00 0.00 72 1017.5
20260905184008 17 197 0.0 0.0 0.00 0.00 0.00 72 1017.6
20260905183949 17 197 0.0 0.0 0.00 0.00 0.00 72 1017.5
20260905183943 17 197 0.0 0.0 0.00 0.00 0.00 72 1017.5
20260905183403 17 196 0.0 0.0 0.00 0.00 0.00 72 1017.5
20260905183303 17 196 0.0 0.0 0.00 0.00 0.00 72 1017.5
20260905183210 17 196 0.0 0.0 0.00 0.00 0.00 72 1017.4
20260905183203 17 196 0.0 0.0 0.00 0.00 0.00 72 1017.4
20260905183101 17 196 0.0 0.0 0.00 0.00 0.00 72 1017.4
20260905183003 17 196 0.0 1.6 0.00 0.00 0.00 72 1017.5
20260905182903 17 196 0.0 1.6 0.00 0.00 0.00 72 1017.6
20260905182846 17 196 0.0 1.6 0.00 0.00 0.00 72 1017.6
20260905182828 17 196 0.0 1.6 0.00 0.00 0.00 71 1017.4
20260905182821 17 197 0.0 1.6 0.00 0.00 0.00 71 1017.4
20260905182502 17 200 0.0 1.6 0.00 0.00 0.00 70 1017.5
20260905182402 17 196 0.0 1.6 0.00 0.00 0.00 70 1017.5
20260905182317 17 196 0.0 1.6 0.00 0.00 0.00 69 1017.5
20260905182311 17 194 0.0 1.6 0.00 0.00 0.00 71 1017.6
20260905182256 17 196 0.0 1.6 0.00 0.00 0.00 71 1017.4
20260905182236 17 196 0.0 1.6 0.00 0.00 0.00 70 1017.4
20260905182220 17 194 0.0 1.6 0.00 0.00 0.00 70 1017.5
20260905182204 17 192 0.0 1.6 0.00 0.00 0.00 70 1017.5
20260905181928 17 195 0.0 1.6 0.00 0.00 0.00 70 1017.5
20260905181658 17 196 0.0 1.6 0.00 0.00 0.00 69 1017.2
20260905181558 17 195 0.0 1.6 0.00 0.00 0.00 70 1017.3
20260905181458 17 195 0.0 1.6 0.00 0.00 0.00 70 1017.2
20260905181359 17 196 0.0 1.6 0.00 0.00 0.00 70 1017.3
20260905181258 17 197 0.0 1.6 0.00 0.00 0.00 70 1017.4
20260905181206 17 199 0.0 1.6 0.00 0.00 0.00 70 1017.4
20260905181158 17 199 0.0 1.6 0.00 0.00 0.00 70 1017.4
20260905181058 17 186 0.0 1.6 0.00 0.00 0.00 70 1017.5
20260905181000 17 194 0.0 1.6 0.00 0.00 0.00 69 1017.2
20260905180907 17 192 0.0 1.6 0.00 0.00 0.00 70 1017.4
20260905180851 17 198 0.0 1.6 0.00 0.00 0.00 70 1017.2
20260905180833 17 198 0.0 1.6 0.00 0.00 0.00 69 1017.2
20260905180827 17 198 0.0 1.6 0.00 0.00 0.00 69 1017.3
20260905180551 18 188 0.0 1.6 0.00 0.00 0.00 70 1017.3
20260905180536 18 195 0.0 1.6 0.00 0.00 0.00 69 1017.4
20260905180304 18 196 0.0 1.6 0.00 0.00 0.00 69 1017.2
20260905180255 18 195 0.0 1.6 0.00 0.00 0.00 69 1017.4
20260905175934 18 203 0.0 1.6 0.00 0.00 0.00 68 1017.5
20260905175834 18 198 0.0 1.6 0.00 0.00 0.00 68 1017.4
20260905175706 18 199 0.0 1.6 0.00 0.00 0.00 68 1017.3
20260905175634 18 196 0.0 1.6 0.00 0.00 0.00 68 1017.1
20260905175534 18 197 0.0 1.6 0.00 0.00 0.00 67 1017.2
20260905175434 18 203 0.0 1.6 0.00 0.00 0.00 67 1017.2
20260905175334 18 196 0.0 1.6 0.00 0.00 0.00 66 1017.3
20260905175316 18 185 0.0 1.6 0.00 0.00 0.00 67 1017.1
20260905175306 18 191 0.0 1.6 0.00 0.00 0.00 67 1017.1
20260905175254 18 192 0.0 1.6 0.00 0.00 0.00 67 1017.2
20260905175011 18 193 0.0 1.6 0.00 0.00 0.00 67 1017.2
20260905174955 18 192 0.0 1.6 0.00 0.00 0.00 66 1017.2
20260905174940 18 194 0.0 1.6 0.00 0.00 0.00 66 1017.1
20260905174925 18 196 0.0 1.6 0.00 0.00 0.00 66 1017.1
20260905174654 18 191 0.0 0.0 0.00 0.00 0.00 66 1017.2
20260905174359 18 196 0.0 0.0 0.00 0.00 0.00 66 1017.3
20260905174343 18 268 0.0 0.0 0.00 0.00 0.00 67 1017.0
20260905174330 18 268 0.0 0.0 0.00 0.00 0.00 66 1017.0
20260905174321 18 268 0.0 1.6 0.00 0.00 0.00 66 1017.1
20260905174306 18 194 0.0 1.6 0.00 0.00 0.00 67 1017.1
20260905174029 18 194 0.0 1.6 0.00 0.00 0.00 66 1017.0
20260905174013 18 191 0.0 1.6 0.00 0.00 0.00 66 1017.0
20260905173958 18 193 0.0 1.6 0.00 0.00 0.00 66 1017.0
20260905173729 18 198 0.0 1.6 0.00 0.00 0.00 66 1017.0
20260905173453 18 197 0.0 1.6 0.00 0.00 0.00 66 1017.1
20260905173206 18 202 0.0 1.6 0.00 0.00 0.00 65 1017.0
20260905173135 18 196 0.0 1.6 0.00 0.00 0.00 66 1017.1
20260905173044 18 197 0.0 1.6 0.00 0.00 0.00 66 1016.8
20260905173038 18 198 0.0 1.6 0.00 0.00 0.00 65 1017.0
20260905173023 18 198 0.0 1.6 0.00 0.00 0.00 66 1017.0
20260905173007 18 190 0.0 1.6 0.00 0.00 0.00 66 1017.0
20260905172953 18 198 0.0 1.6 0.00 0.00 0.00 66 1017.1
20260905172942 18 199 0.0 1.6 0.00 0.00 0.00 65 1017.1
20260905172931 18 196 0.0 1.6 0.00 0.00 0.00 66 1017.0
20260905172655 18 194 0.0 1.6 0.00 0.00 0.00 66 1017.1
20260905172421 18 197 0.0 1.6 0.00 0.00 0.00 66 1016.8
20260905172110 18 188 0.0 1.6 0.00 0.00 0.00 65 1016.9
20260905172010 18 134 0.0 1.6 0.00 0.00 0.00 66 1017.0
20260905171955 18 192 0.0 1.6 0.00 0.00 0.00 66 1017.1
20260905171939 18 192 0.0 1.6 0.00 0.00 0.00 67 1017.0
20260905171710 18 192 0.0 1.6 0.00 0.00 0.00 67 1017.0
20260905171610 18 190 0.0 1.6 0.00 0.00 0.00 67 1016.9
20260905171510 18 194 0.0 1.6 0.00 0.00 0.00 67 1016.9
20260905171410 18 195 0.0 1.6 0.00 0.00 0.00 68 1016.7
20260905171311 18 180 0.0 1.6 0.00 0.00 0.00 67 1016.9
20260905171210 18 187 0.0 1.6 0.00 0.00 0.00 67 1017.0
20260905171110 18 197 0.0 1.6 0.00 0.00 0.00 66 1016.9
20260905171046 18 191 0.0 1.6 0.00 0.00 0.00 66 1017.0
20260905171030 18 196 1.6 1.6 0.00 0.00 0.00 66 1017.1
20260905170711 18 193 0.0 1.6 0.00 0.00 0.00 66 1017.0
20260905170610 18 192 0.0 1.6 0.00 0.00 0.00 66 1016.8
20260905170554 18 197 0.0 1.6 0.00 0.00 0.00 66 1017.0
20260905170538 18 187 0.0 1.6 0.00 0.00 0.00 67 1016.9
20260905170314 18 189 0.0 1.6 0.00 0.00 0.00 67 1016.9
20260905170252 18 196 0.0 1.6 0.00 0.00 0.00 67 1016.8
20260905170236 18 186 0.0 1.6 0.00 0.00 0.00 67 1016.8
20260905170011 18 194 0.0 1.6 0.00 0.00 0.00 67 1016.7
20260905165955 18 194 0.0 1.6 0.00 0.00 0.00 66 1016.8
20260905165940 18 195 0.0 1.6 0.00 0.00 0.00 67 1016.9
20260905165919 18 193 0.0 1.6 0.00 0.00 0.00 67 1016.9
20260905165610 19 194 0.0 1.6 0.00 0.00 0.00 66 1016.7
20260905165511 19 188 0.0 1.6 0.00 0.00 0.00 66 1016.8
20260905165410 19 195 0.0 0.0 0.00 0.00 0.00 65 1016.9
20260905165311 19 197 0.0 0.0 0.00 0.00 0.00 65 1016.7
20260905165210 19 195 0.0 0.0 0.00 0.00 0.00 65 1016.7
20260905165110 19 203 0.0 0.0 0.00 0.00 0.00 65 1016.8
20260905165010 19 192 0.0 0.0 0.00 0.00 0.00 65 1016.8
20260905164914 19 122 0.0 0.0 0.00 0.00 0.00 66 1016.7
20260905164812 19 192 0.0 0.0 0.00 0.00 0.00 66 1016.7
20260905164709 19 194 0.0 0.0 0.00 0.00 0.00 65 1016.7
20260905164421 19 196 0.0 1.6 0.00 0.00 0.00 64 1016.8
20260905164405 19 195 0.0 1.6 0.00 0.00 0.00 64 1016.6
20260905164350 19 195 0.0 1.6 0.00 0.00 0.00 64 1016.6
20260905163853 19 193 0.0 1.6 0.00 0.00 0.00 65 1016.6
20260905163537 19 196 0.0 3.2 0.00 0.00 0.00 64 1016.8
20260905163438 19 198 0.0 3.2 0.00 0.00 0.00 64 1016.6
20260905163339 19 196 0.0 3.2 0.00 0.00 0.00 64 1016.8
20260905163321 19 207 0.0 3.2 0.00 0.00 0.00 64 1016.8
20260905163308 19 197 0.0 3.2 0.00 0.00 0.00 64 1016.8
20260905163259 19 191 0.0 3.2 0.00 0.00 0.00 64 1016.6
20260905162938 19 191 0.0 3.2 0.00 0.00 0.00 64 1016.9
20260905162905 20 195 0.0 3.2 0.00 0.00 0.00 63 1016.5
20260905162857 19 190 0.0 3.2 0.00 0.00 0.00 64 1016.6
20260905162840 19 192 0.0 3.2 0.00 0.00 0.00 64 1016.6
20260905162824 19 197 0.0 3.2 0.00 0.00 0.00 64 1016.6
20260905162815 19 182 0.0 3.2 0.00 0.00 0.00 64 1016.5
20260905162550 19 199 0.0 3.2 0.00 0.00 0.00 64 1016.3
20260905162535 19 123 0.0 3.2 0.00 0.00 0.00 64 1016.5
20260905162519 19 193 0.0 1.6 0.00 0.00 0.00 64 1016.5
20260905162503 19 194 0.0 3.2 0.00 0.00 0.00 64 1016.5
20260905162450 19 173 0.0 3.2 0.00 0.00 0.00 64 1016.5
20260905162441 19 194 0.0 3.2 0.00 0.00 0.00 64 1016.4
20260905162425 19 196 0.0 3.2 0.00 0.00 0.00 64 1016.6
20260905162149 20 196 0.0 3.2 0.00 0.00 0.00 63 1016.5
20260905161639 20 196 0.0 3.2 0.00 0.00 0.00 63 1016.3
20260905161538 20 196 0.0 3.2 0.00 0.00 0.00 63 1016.6
20260905161526 20 276 0.0 3.2 0.00 0.00 0.00 63 1016.2
20260905161517 20 194 0.0 3.2 0.00 0.00 0.00 63 1016.4
20260905161500 20 199 0.0 3.2 0.00 0.00 0.00 63 1016.5
20260905161443 20 158 0.0 1.6 0.00 0.00 0.00 63 1016.2
20260905161215 20 190 0.0 3.2 0.00 0.00 0.00 63 1016.3
20260905161200 20 190 0.0 3.2 0.00 0.00 0.00 63 1016.3
20260905160858 20 202 0.0 4.8 0.00 0.00 0.00 61 1016.1
20260905160851 20 194 0.0 3.2 0.00 0.00 0.00 63 1016.2
20260905160835 20 204 0.0 4.8 0.00 0.00 0.00 63 1016.3
20260905160820 20 192 0.0 4.8 0.00 0.00 0.00 63 1016.3
20260905160757 20 114 0.0 4.8 0.00 0.00 0.00 63 1016.3
20260905160740 20 201 0.0 4.8 0.00 0.00 0.00 62 1016.3
20260905160504 20 144 0.0 4.8 0.00 0.00 0.00 62 1016.3
20260905160240 20 190 0.0 4.8 0.00 0.00 0.00 62 1016.2
20260905160227 20 182 0.0 4.8 0.00 0.00 0.00 62 1016.2
20260905160218 20 167 0.0 4.8 0.00 0.00 0.00 62 1016.1
20260905160200 20 194 0.0 4.8 0.00 0.00 0.00 62 1016.4
20260905160145 20 194 0.0 4.8 0.00 0.00 0.00 62 1016.1
20260905160128 20 144 0.0 4.8 0.00 0.00 0.00 61 1016.2
20260905160112 20 199 0.0 4.8 0.00 0.00 0.00 61 1016.1
20260905155538 20 194 0.0 4.8 0.00 0.00 0.00 61 1016.1
20260905155514 20 170 0.0 4.8 0.00 0.00 0.00 61 1016.2
20260905155458 20 132 0.0 4.8 0.00 0.00 0.00 61 1016.2
20260905155210 20 159 0.0 4.8 0.00 0.00 0.00 60 1015.9
20260905155138 20 191 0.0 4.8 0.00 0.00 0.00 60 1016.1
20260905155038 20 58 1.6 4.8 0.00 0.00 0.00 60 1016.1
20260905154937 20 44 1.6 4.8 0.00 0.00 0.00 59 1016.1
20260905154839 20 168 0.0 4.8 0.00 0.00 0.00 60 1016.0
20260905154738 20 183 1.6 4.8 0.00 0.00 0.00 59 1016.1
20260905154712 20 159 3.2 4.8 0.00 0.00 0.00 59 1016.1
20260905154638 20 192 1.6 4.8 0.00 0.00 0.00 59 1016.0
20260905154538 20 190 0.0 4.8 0.00 0.00 0.00 59 1016.3
20260905154502 20 163 1.6 4.8 0.00 0.00 0.00 59 1016.2
20260905154446 20 209 1.6 4.8 0.00 0.00 0.00 59 1016.0
20260905154430 20 181 0.0 4.8 0.00 0.00 0.00 59 1015.7
20260905154416 20 183 0.0 4.8 0.00 0.00 0.00 59 1015.7
20260905154407 20 195 1.6 4.8 0.00 0.00 0.00 59 1016.1
20260905154351 20 194 0.0 4.8 0.00 0.00 0.00 58 1016.3
20260905154335 20 102 1.6 11.3 0.00 0.00 0.00 59 1016.3
20260905154100 20 199 0.0 11.3 0.00 0.00 0.00 59 1016.1
20260905154045 20 192 1.6 11.3 0.00 0.00 0.00 59 1016.1
20260905154036 20 187 1.6 11.3 0.00 0.00 0.00 58 1016.2
20260905153540 20 114 1.6 11.3 0.00 0.00 0.00 58 1016.0
20260905153307 21 72 0.0 11.3 0.00 0.00 0.00 58 1015.9
20260905153258 21 186 0.0 11.3 0.00 0.00 0.00 58 1016.1
20260905152938 21 158 1.6 4.8 0.00 0.00 0.00 58 1016.0